1000 dernières valeurs brutes
Date Temp Humidity Gust Pressure Rain
27 juillet 11:03 22.7°C 70% 3.2 km/h NE 1013.4 hPa 0 mm
27 juillet 11:02 22.8°C 70% 6.3 km/h SE 1013.3 hPa 0 mm
27 juillet 11:02 22.7°C 70% 6.3 km/h NNE 1013.4 hPa 0 mm
27 juillet 11:00 22.7°C 69% 3.7 km/h SO 1013.4 hPa 0 mm
27 juillet 10:59 22.7°C 70% 4.2 km/h SO 1013.4 hPa 0 mm
27 juillet 10:58 22.7°C 70% 6.9 km/h ENE 1013.4 hPa 0 mm
27 juillet 10:57 22.8°C 70% 5.8 km/h NE 1013.4 hPa 0 mm
27 juillet 10:56 22.8°C 70% 7.4 km/h NNE 1013.4 hPa 0 mm
27 juillet 10:55 22.8°C 69% 5.8 km/h NE 1013.4 hPa 0 mm
27 juillet 10:55 22.8°C 70% 5.8 km/h N 1013.4 hPa 0 mm
27 juillet 10:54 22.9°C 70% 7.4 km/h NE 1013.4 hPa 0 mm
27 juillet 10:53 22.9°C 69% 7.4 km/h NNE 1013.4 hPa 0 mm
27 juillet 10:52 23.0°C 69% 5.3 km/h NNE 1013.4 hPa 0 mm
27 juillet 10:51 22.8°C 71% 5.8 km/h E 1013.4 hPa 0 mm
27 juillet 10:50 22.7°C 71% 3.7 km/h ESE 1013.5 hPa 0 mm
27 juillet 10:49 22.5°C 72% 5.3 km/h OSO 1013.4 hPa 0 mm
27 juillet 10:48 22.5°C 72% 5.8 km/h SSO 1013.4 hPa 0 mm
27 juillet 10:47 22.5°C 72% 4.2 km/h ENE 1013.4 hPa 0 mm
27 juillet 10:46 22.3°C 73% 5.3 km/h OSO 1013.5 hPa 0 mm
27 juillet 10:45 22.2°C 74% 3.2 km/h ENE 1013.5 hPa 0 mm
27 juillet 10:44 22.0°C 72% 5.3 km/h NNE 1013.5 hPa 0 mm
27 juillet 10:43 22.1°C 71% 6.3 km/h NE 1013.5 hPa 0 mm
27 juillet 10:42 22.1°C 71% 6.3 km/h NE 1013.4 hPa 0 mm
27 juillet 10:41 22.3°C 73% 4.2 km/h SE 1013.4 hPa 0 mm
27 juillet 10:40 22.4°C 72% 4.2 km/h SE 1013.4 hPa 0 mm
27 juillet 10:39 22.6°C 71% 4.2 km/h NNE 1013.4 hPa 0 mm
27 juillet 10:38 22.6°C 73% 4.8 km/h E 1013.4 hPa 0 mm
27 juillet 10:37 22.6°C 72% 4.8 km/h NE 1013.4 hPa 0 mm
27 juillet 10:36 22.5°C 73% 2.6 km/h ESE 1013.4 hPa 0 mm
27 juillet 10:35 22.5°C 73% 2.1 km/h ESE 1013.5 hPa 0 mm
27 juillet 10:34 22.4°C 72% 3.2 km/h OSO 1013.4 hPa 0 mm
27 juillet 10:33 22.2°C 72% 3.2 km/h SO 1013.5 hPa 0 mm
27 juillet 10:32 22.2°C 73% 4.2 km/h ESE 1013.4 hPa 0 mm
27 juillet 10:31 22.1°C 73% 4.8 km/h S 1013.4 hPa 0 mm
27 juillet 10:30 22.3°C 72% 4.2 km/h ENE 1013.4 hPa 0 mm
27 juillet 10:29 22.2°C 74% 4.8 km/h NNE 1013.4 hPa 0 mm
27 juillet 10:28 22.3°C 74% 2.6 km/h NE 1013.4 hPa 0 mm
27 juillet 10:27 21.9°C 74% 2.1 km/h SE 1013.4 hPa 0 mm
27 juillet 10:26 21.9°C 74% 1.1 km/h S 1013.4 hPa 0 mm
27 juillet 10:25 21.7°C 73% 2.6 km/h SO 1013.4 hPa 0 mm
27 juillet 10:24 21.8°C 75% 3.2 km/h S 1013.4 hPa 0 mm
27 juillet 10:23 21.7°C 74% 3.7 km/h E 1013.4 hPa 0 mm
27 juillet 10:22 21.5°C 74% 3.7 km/h E 1013.4 hPa 0 mm
27 juillet 10:21 21.4°C 73% 3.2 km/h ENE 1013.4 hPa 0 mm
27 juillet 10:20 21.1°C 73% 1.1 km/h E 1013.4 hPa 0 mm
27 juillet 10:19 21.1°C 73% 2.1 km/h NNE 1013.4 hPa 0 mm
27 juillet 10:18 21.1°C 73% 2.6 km/h NNE 1013.5 hPa 0 mm
27 juillet 10:17 21.2°C 74% 3.2 km/h NE 1013.5 hPa 0 mm
27 juillet 10:16 21.1°C 77% 4.2 km/h NE 1013.5 hPa 0 mm
27 juillet 10:15 21.0°C 75% 3.7 km/h S 1013.5 hPa 0 mm
27 juillet 10:14 21.1°C 75% 4.8 km/h NE 1013.5 hPa 0 mm
27 juillet 10:13 21.0°C 77% 5.3 km/h NE 1013.5 hPa 0 mm
27 juillet 10:12 20.8°C 76% 3.2 km/h ENE 1013.5 hPa 0 mm
27 juillet 10:11 20.8°C 74% 3.2 km/h E 1013.4 hPa 0 mm
27 juillet 10:10 20.8°C 74% 3.2 km/h NE 1013.5 hPa 0 mm
27 juillet 10:09 20.8°C 74% 4.8 km/h NNE 1013.5 hPa 0 mm
27 juillet 10:08 20.9°C 75% 5.3 km/h NE 1013.5 hPa 0 mm
27 juillet 10:07 20.8°C 76% 3.2 km/h SSE 1013.5 hPa 0 mm
27 juillet 10:06 20.6°C 75% 3.7 km/h NNE 1013.5 hPa 0 mm
27 juillet 10:05 20.9°C 74% 1.1 km/h N 1013.5 hPa 0 mm
27 juillet 10:04 20.9°C 74% 3.2 km/h N 1013.5 hPa 0 mm
27 juillet 10:03 20.9°C 74% 3.2 km/h NNE 1013.5 hPa 0 mm
27 juillet 10:02 21.1°C 76% 4.8 km/h NE 1013.5 hPa 0 mm
27 juillet 10:01 21.1°C 76% 3.7 km/h NNE 1013.5 hPa 0 mm
27 juillet 10:00 21.2°C 76% 5.3 km/h NE 1013.5 hPa 0 mm
27 juillet 09:59 21.2°C 78% 5.3 km/h NE 1013.5 hPa 0 mm
27 juillet 09:58 21.1°C 77% 3.7 km/h NE 1013.5 hPa 0 mm
27 juillet 09:57 21.1°C 77% 4.2 km/h ENE 1013.5 hPa 0 mm
27 juillet 09:56 20.9°C 77% 4.2 km/h NE 1013.6 hPa 0 mm
27 juillet 09:55 20.8°C 78% 3.2 km/h NE 1013.6 hPa 0 mm
27 juillet 09:54 20.7°C 79% 2.6 km/h ENE 1013.6 hPa 0 mm
27 juillet 09:53 20.6°C 79% 1.6 km/h ESE 1013.6 hPa 0 mm
27 juillet 09:52 20.5°C 78% 1.6 km/h NE 1013.6 hPa 0 mm
27 juillet 09:51 20.3°C 78% 1.6 km/h SSE 1013.6 hPa 0 mm
27 juillet 09:50 20.3°C 78% 0.0 km/h NE 1013.6 hPa 0 mm
27 juillet 09:49 20.2°C 78% 2.6 km/h E 1013.6 hPa 0 mm
27 juillet 09:48 20.2°C 79% 3.2 km/h E 1013.7 hPa 0 mm
27 juillet 09:47 20.2°C 79% 3.7 km/h ENE 1013.6 hPa 0 mm
27 juillet 09:46 20.0°C 79% 3.7 km/h NE 1013.6 hPa 0 mm
27 juillet 09:45 20.1°C 78% 3.7 km/h SSE 1013.7 hPa 0 mm
27 juillet 09:44 20.1°C 80% 4.8 km/h NNE 1013.7 hPa 0 mm
27 juillet 09:43 20.0°C 80% 3.7 km/h NE 1013.6 hPa 0 mm
27 juillet 09:42 19.9°C 79% 4.8 km/h NNE 1013.6 hPa 0 mm
27 juillet 09:41 19.9°C 80% 3.7 km/h NE 1013.6 hPa 0 mm
27 juillet 09:40 19.9°C 80% 4.2 km/h NNE 1013.7 hPa 0 mm
27 juillet 09:39 19.9°C 80% 3.7 km/h NNE 1013.6 hPa 0 mm
27 juillet 09:38 19.8°C 81% 4.2 km/h NE 1013.6 hPa 0 mm
27 juillet 09:37 19.7°C 80% 4.2 km/h NNE 1013.6 hPa 0 mm
27 juillet 09:36 19.6°C 80% 3.2 km/h NNE 1013.7 hPa 0 mm
27 juillet 09:35 19.5°C 80% 4.2 km/h NNE 1013.7 hPa 0 mm
27 juillet 09:34 19.6°C 80% 3.7 km/h NNE 1013.6 hPa 0 mm
27 juillet 09:33 19.7°C 80% 5.3 km/h NNE 1013.6 hPa 0 mm
27 juillet 09:32 19.7°C 80% 5.3 km/h NE 1013.6 hPa 0 mm
27 juillet 09:31 19.7°C 82% 5.8 km/h NNE 1013.6 hPa 0 mm
27 juillet 09:30 19.7°C 82% 4.2 km/h ESE 1013.6 hPa 0 mm
27 juillet 09:29 19.5°C 82% 4.8 km/h SE 1013.6 hPa 0 mm
27 juillet 09:28 19.3°C 82% 4.2 km/h E 1013.7 hPa 0 mm
27 juillet 09:27 19.3°C 81% 4.2 km/h NE 1013.7 hPa 0 mm
27 juillet 09:26 19.2°C 81% 3.7 km/h NE 1013.6 hPa 0 mm
27 juillet 09:25 19.2°C 81% 4.2 km/h NNE 1013.6 hPa 0 mm
27 juillet 09:24 19.1°C 81% 4.2 km/h ESE 1013.6 hPa 0 mm
27 juillet 09:23 19.0°C 82% 4.8 km/h NE 1013.6 hPa 0 mm
27 juillet 09:22 19.0°C 82% 5.8 km/h ENE 1013.6 hPa 0 mm
27 juillet 09:21 19.0°C 82% 5.3 km/h NNE 1013.6 hPa 0 mm
27 juillet 09:20 19.0°C 82% 5.3 km/h NE 1013.6 hPa 0 mm
27 juillet 09:19 19.0°C 81% 5.3 km/h NE 1013.6 hPa 0 mm
27 juillet 09:18 19.1°C 82% 5.3 km/h NE 1013.6 hPa 0 mm
27 juillet 09:17 19.1°C 82% 4.2 km/h E 1013.6 hPa 0 mm
27 juillet 09:16 19.0°C 82% 3.7 km/h E 1013.5 hPa 0 mm
27 juillet 09:15 19.0°C 82% 3.7 km/h ENE 1013.5 hPa 0 mm
27 juillet 09:14 19.0°C 82% 3.7 km/h N 1013.5 hPa 0 mm
27 juillet 09:13 19.0°C 82% 3.7 km/h NE 1013.5 hPa 0 mm
27 juillet 09:12 19.0°C 82% 4.2 km/h NNE 1013.5 hPa 0 mm
27 juillet 09:11 19.0°C 81% 3.7 km/h NE 1013.5 hPa 0 mm
27 juillet 09:10 19.0°C 82% 4.2 km/h NE 1013.5 hPa 0 mm
27 juillet 09:09 19.0°C 82% 3.7 km/h N 1013.5 hPa 0 mm
27 juillet 09:08 19.0°C 82% 4.2 km/h ENE 1013.5 hPa 0 mm
27 juillet 09:07 19.0°C 81% 3.2 km/h NE 1013.5 hPa 0 mm
27 juillet 09:06 19.0°C 82% 3.2 km/h NNE 1013.5 hPa 0 mm
27 juillet 09:05 19.0°C 83% 3.7 km/h ENE 1013.5 hPa 0 mm
27 juillet 09:04 19.0°C 83% 4.2 km/h SSE 1013.5 hPa 0 mm
27 juillet 09:03 18.9°C 82% 3.7 km/h NNE 1013.5 hPa 0 mm
27 juillet 09:02 18.9°C 82% 3.2 km/h NNE 1013.5 hPa 0 mm
27 juillet 09:01 18.9°C 83% 3.2 km/h NE 1013.5 hPa 0 mm
27 juillet 09:00 18.9°C 83% 3.7 km/h NE 1013.5 hPa 0 mm
27 juillet 08:59 18.8°C 82% 3.7 km/h NNE 1013.5 hPa 0 mm
27 juillet 08:58 18.8°C 82% 4.8 km/h NNE 1013.5 hPa 0 mm
27 juillet 08:57 18.8°C 82% 5.8 km/h NNE 1013.5 hPa 0 mm
27 juillet 08:56 18.8°C 82% 3.7 km/h NNE 1013.5 hPa 0 mm
27 juillet 08:55 18.9°C 82% 2.1 km/h ESE 1013.5 hPa 0 mm
27 juillet 08:54 18.9°C 83% 5.8 km/h NE 1013.5 hPa 0 mm
27 juillet 08:53 19.0°C 84% 5.8 km/h SE 1013.5 hPa 0 mm
27 juillet 08:52 19.0°C 84% 4.8 km/h ESE 1013.5 hPa 0 mm
27 juillet 08:51 18.9°C 85% 5.8 km/h SE 1013.5 hPa 0 mm
27 juillet 08:50 18.9°C 83% 5.8 km/h SSE 1013.5 hPa 0 mm
27 juillet 08:49 18.9°C 83% 5.3 km/h NE 1013.5 hPa 0 mm
27 juillet 08:48 18.9°C 83% 3.7 km/h NE 1013.6 hPa 0 mm
27 juillet 08:47 18.9°C 84% 3.7 km/h NNE 1013.6 hPa 0 mm
27 juillet 08:46 18.9°C 85% 5.3 km/h E 1013.5 hPa 0 mm
27 juillet 08:45 18.8°C 85% 5.8 km/h OSO 1013.5 hPa 0 mm
27 juillet 08:44 18.8°C 86% 5.3 km/h SSO 1013.5 hPa 0 mm
27 juillet 08:43 18.8°C 86% 5.3 km/h OSO 1013.5 hPa 0 mm
27 juillet 08:42 18.8°C 86% 5.8 km/h OSO 1013.5 hPa 0 mm
27 juillet 08:41 18.7°C 86% 5.3 km/h SO 1013.5 hPa 0 mm
27 juillet 08:40 18.7°C 86% 5.3 km/h O 1013.5 hPa 0 mm
27 juillet 08:39 18.7°C 86% 5.3 km/h O 1013.5 hPa 0 mm
27 juillet 08:38 18.7°C 85% 5.3 km/h SSE 1013.4 hPa 0 mm
27 juillet 08:37 18.7°C 85% 4.8 km/h S 1013.5 hPa 0 mm
27 juillet 08:36 18.6°C 85% 5.3 km/h E 1013.5 hPa 0 mm
27 juillet 08:35 18.7°C 84% 4.2 km/h SE 1013.5 hPa 0 mm
27 juillet 08:34 18.8°C 86% 5.3 km/h ESE 1013.5 hPa 0 mm
27 juillet 08:33 18.8°C 86% 5.3 km/h OSO 1013.5 hPa 0 mm
27 juillet 08:32 18.9°C 86% 6.9 km/h S 1013.5 hPa 0 mm
27 juillet 08:31 18.8°C 87% 6.3 km/h S 1013.5 hPa 0 mm
27 juillet 08:30 18.7°C 87% 4.8 km/h E 1013.5 hPa 0 mm
27 juillet 08:29 18.7°C 86% 4.2 km/h SSE 1013.5 hPa 0 mm
27 juillet 08:28 18.6°C 87% 3.7 km/h SSE 1013.4 hPa 0 mm
27 juillet 08:27 18.6°C 87% 3.7 km/h OSO 1013.4 hPa 0 mm
27 juillet 08:26 18.5°C 87% 3.2 km/h O 1013.4 hPa 0 mm
27 juillet 08:25 18.4°C 87% 5.3 km/h SO 1013.4 hPa 0 mm
27 juillet 08:24 18.4°C 87% 5.3 km/h ESE 1013.4 hPa 0 mm
27 juillet 08:23 18.4°C 87% 4.2 km/h ESE 1013.4 hPa 0 mm
27 juillet 08:22 18.4°C 88% 4.8 km/h SE 1013.4 hPa 0 mm
27 juillet 08:21 18.4°C 87% 4.2 km/h SSO 1013.4 hPa 0 mm
27 juillet 08:20 18.4°C 87% 3.2 km/h SO 1013.5 hPa 0 mm
27 juillet 08:19 18.4°C 87% 3.7 km/h SO 1013.5 hPa 0 mm
27 juillet 08:18 18.4°C 87% 5.8 km/h SSO 1013.5 hPa 0 mm
27 juillet 08:17 18.5°C 88% 5.3 km/h O 1013.5 hPa 0 mm
27 juillet 08:16 18.5°C 88% 5.8 km/h O 1013.5 hPa 0 mm
27 juillet 08:15 18.4°C 88% 5.8 km/h OSO 1013.5 hPa 0 mm
27 juillet 08:14 18.3°C 88% 5.3 km/h SSO 1013.5 hPa 0 mm
27 juillet 08:13 18.3°C 88% 5.8 km/h O 1013.5 hPa 0 mm
27 juillet 08:12 18.3°C 88% 6.3 km/h SSE 1013.5 hPa 0 mm
27 juillet 08:11 18.2°C 89% 3.7 km/h S 1013.4 hPa 0 mm
27 juillet 08:10 18.1°C 88% 4.2 km/h OSO 1013.4 hPa 0 mm
27 juillet 08:09 18.0°C 89% 2.6 km/h SO 1013.4 hPa 0 mm
27 juillet 08:08 17.9°C 89% 3.2 km/h SO 1013.4 hPa 0 mm
27 juillet 08:07 17.9°C 90% 2.6 km/h OSO 1013.4 hPa 0 mm
27 juillet 08:06 17.7°C 89% 1.6 km/h S 1013.4 hPa 0 mm
27 juillet 08:05 17.5°C 90% 2.6 km/h SO 1013.3 hPa 0 mm
27 juillet 08:04 17.3°C 91% 1.6 km/h SO 1013.4 hPa 0 mm
27 juillet 08:03 17.1°C 92% 0.0 km/h SSO 1013.4 hPa 0 mm
27 juillet 08:02 16.9°C 92% 1.6 km/h SO 1013.4 hPa 0 mm
27 juillet 08:01 16.9°C 92% 1.6 km/h S 1013.4 hPa 0 mm
27 juillet 08:00 16.8°C 93% 2.1 km/h SE 1013.4 hPa 0 mm
27 juillet 07:59 16.7°C 93% 1.6 km/h SO 1013.4 hPa 0 mm
27 juillet 07:58 16.6°C 94% 1.6 km/h SSE 1013.4 hPa 0 mm
27 juillet 07:57 16.4°C 94% 1.6 km/h ESE 1013.3 hPa 0 mm
27 juillet 07:56 16.3°C 95% 1.6 km/h SE 1013.4 hPa 0 mm
27 juillet 07:55 16.0°C 95% 1.6 km/h ESE 1013.4 hPa 0 mm
27 juillet 07:54 15.9°C 95% 2.1 km/h SSE 1013.3 hPa 0 mm
27 juillet 07:53 15.7°C 95% 2.1 km/h S 1013.3 hPa 0 mm
27 juillet 07:52 15.7°C 95% 1.6 km/h S 1013.3 hPa 0 mm
27 juillet 07:51 15.5°C 95% 2.1 km/h S 1013.3 hPa 0 mm
27 juillet 07:50 15.3°C 95% 2.1 km/h S 1013.3 hPa 0 mm
27 juillet 07:49 15.2°C 95% 2.1 km/h S 1013.3 hPa 0 mm
27 juillet 07:48 15.1°C 95% 2.1 km/h S 1013.3 hPa 0 mm
27 juillet 07:47 15.0°C 95% 1.6 km/h SE 1013.3 hPa 0 mm
27 juillet 07:46 15.0°C 95% 1.6 km/h SE 1013.3 hPa 0 mm
27 juillet 07:45 15.0°C 95% 2.1 km/h S 1013.3 hPa 0 mm
27 juillet 07:44 15.0°C 95% 2.1 km/h SSO 1013.3 hPa 0 mm
27 juillet 07:43 14.9°C 95% 2.1 km/h SSO 1013.3 hPa 0 mm
27 juillet 07:42 14.8°C 95% 2.1 km/h S 1013.3 hPa 0 mm
27 juillet 07:41 14.7°C 95% 2.6 km/h S 1013.4 hPa 0 mm
27 juillet 07:40 14.7°C 95% 3.2 km/h S 1013.4 hPa 0 mm
27 juillet 07:39 14.7°C 95% 3.7 km/h S 1013.3 hPa 0 mm
27 juillet 07:38 14.7°C 95% 3.7 km/h SO 1013.3 hPa 0 mm
27 juillet 07:37 14.7°C 95% 3.7 km/h S 1013.4 hPa 0 mm
27 juillet 07:36 14.6°C 95% 2.6 km/h SSO 1013.4 hPa 0 mm
27 juillet 07:35 14.6°C 95% 2.6 km/h S 1013.4 hPa 0 mm
27 juillet 07:34 14.7°C 96% 2.1 km/h SO 1013.4 hPa 0 mm
27 juillet 07:33 14.7°C 96% 2.1 km/h S 1013.4 hPa 0 mm
27 juillet 07:32 14.7°C 96% 2.1 km/h SO 1013.4 hPa 0 mm
27 juillet 07:31 14.7°C 96% 2.1 km/h S 1013.3 hPa 0 mm
27 juillet 07:30 14.6°C 96% 2.1 km/h S 1013.3 hPa 0 mm
27 juillet 07:29 14.5°C 96% 2.1 km/h S 1013.3 hPa 0 mm
27 juillet 07:28 14.4°C 96% 2.1 km/h S 1013.3 hPa 0 mm
27 juillet 07:27 14.3°C 96% 2.1 km/h S 1013.2 hPa 0 mm
27 juillet 07:26 14.3°C 96% 1.1 km/h SO 1013.2 hPa 0 mm
27 juillet 07:25 14.2°C 96% 1.1 km/h SSO 1013.2 hPa 0 mm
27 juillet 07:24 14.2°C 96% 1.1 km/h S 1013.3 hPa 0 mm
27 juillet 07:23 14.2°C 96% 1.6 km/h S 1013.3 hPa 0 mm
27 juillet 07:22 14.2°C 96% 2.1 km/h S 1013.2 hPa 0 mm
27 juillet 07:21 14.2°C 96% 2.1 km/h S 1013.2 hPa 0 mm
27 juillet 07:20 14.2°C 96% 2.6 km/h SSO 1013.3 hPa 0 mm
27 juillet 07:19 14.1°C 96% 3.7 km/h SO 1013.3 hPa 0 mm
27 juillet 07:18 14.1°C 96% 3.7 km/h SO 1013.3 hPa 0 mm
27 juillet 07:17 14.0°C 96% 3.7 km/h SSO 1013.3 hPa 0 mm
27 juillet 07:16 14.0°C 96% 3.2 km/h S 1013.3 hPa 0 mm
27 juillet 07:15 14.0°C 96% 3.2 km/h S 1013.3 hPa 0 mm
27 juillet 07:14 13.9°C 96% 3.2 km/h S 1013.3 hPa 0 mm
27 juillet 07:13 13.9°C 96% 3.2 km/h SO 1013.4 hPa 0 mm
27 juillet 07:12 13.8°C 96% 3.2 km/h S 1013.4 hPa 0 mm
27 juillet 07:11 13.8°C 96% 2.6 km/h SSO 1013.4 hPa 0 mm
27 juillet 07:10 13.8°C 96% 2.1 km/h SO 1013.4 hPa 0 mm
27 juillet 07:09 13.7°C 96% 2.1 km/h S 1013.4 hPa 0 mm
27 juillet 07:08 13.7°C 96% 1.6 km/h SSO 1013.4 hPa 0 mm
27 juillet 07:07 13.7°C 96% 1.6 km/h SSO 1013.4 hPa 0 mm
27 juillet 07:06 13.7°C 96% 2.1 km/h S 1013.4 hPa 0 mm
27 juillet 07:05 13.7°C 95% 4.2 km/h S 1013.4 hPa 0 mm
27 juillet 07:04 13.7°C 95% 4.2 km/h S 1013.4 hPa 0 mm
27 juillet 07:03 13.7°C 95% 4.2 km/h S 1013.4 hPa 0 mm
27 juillet 07:02 13.7°C 95% 4.2 km/h SSO 1013.4 hPa 0 mm
27 juillet 07:01 13.6°C 95% 3.2 km/h SSE 1013.4 hPa 0 mm
27 juillet 07:00 13.6°C 95% 0.0 km/h E 1013.4 hPa 0 mm
27 juillet 06:59 13.5°C 95% 0.0 km/h SE 1013.4 hPa 0 mm
27 juillet 06:58 13.5°C 95% 0.0 km/h ESE 1013.4 hPa 0 mm
27 juillet 06:57 13.5°C 95% 0.0 km/h SE 1013.4 hPa 0 mm
27 juillet 06:56 13.5°C 95% 0.0 km/h SE 1013.4 hPa 0 mm
27 juillet 06:55 13.4°C 95% 0.0 km/h SE 1013.5 hPa 0 mm
27 juillet 06:54 13.4°C 95% 0.0 km/h ESE 1013.4 hPa 0 mm
27 juillet 06:53 13.4°C 95% 1.1 km/h ESE 1013.4 hPa 0 mm
27 juillet 06:52 13.4°C 95% 2.1 km/h ESE 1013.4 hPa 0 mm
27 juillet 06:51 13.4°C 95% 3.2 km/h E 1013.5 hPa 0 mm
27 juillet 06:50 13.4°C 95% 3.2 km/h SE 1013.5 hPa 0 mm
27 juillet 06:49 13.5°C 95% 3.2 km/h ESE 1013.5 hPa 0 mm
27 juillet 06:48 13.6°C 95% 4.8 km/h SE 1013.5 hPa 0 mm
27 juillet 06:47 13.7°C 96% 5.8 km/h ESE 1013.5 hPa 0 mm
27 juillet 06:46 13.5°C 96% 5.3 km/h ESE 1013.5 hPa 0 mm
27 juillet 06:45 13.5°C 96% 2.6 km/h SE 1013.5 hPa 0 mm
27 juillet 06:44 13.2°C 95% 2.1 km/h SE 1013.5 hPa 0 mm
27 juillet 06:43 13.1°C 95% 2.1 km/h ESE 1013.5 hPa 0 mm
27 juillet 06:42 13.0°C 95% 1.6 km/h SSE 1013.4 hPa 0 mm
27 juillet 06:41 13.0°C 95% 1.1 km/h SE 1013.5 hPa 0 mm
27 juillet 06:40 13.0°C 95% 1.1 km/h SE 1013.5 hPa 0 mm
27 juillet 06:39 13.1°C 95% 1.1 km/h SE 1013.5 hPa 0 mm
27 juillet 06:38 13.1°C 95% 1.1 km/h SE 1013.5 hPa 0 mm
27 juillet 06:37 13.1°C 95% 3.2 km/h ESE 1013.5 hPa 0 mm
27 juillet 06:36 13.1°C 95% 4.2 km/h SSO 1013.6 hPa 0 mm
27 juillet 06:35 13.2°C 95% 4.2 km/h SSO 1013.5 hPa 0 mm
27 juillet 06:34 13.2°C 95% 4.2 km/h SSO 1013.6 hPa 0 mm
27 juillet 06:33 13.2°C 95% 4.2 km/h SSO 1013.6 hPa 0 mm
27 juillet 06:32 13.2°C 95% 2.1 km/h SSO 1013.6 hPa 0 mm
27 juillet 06:31 13.2°C 95% 1.6 km/h SE 1013.6 hPa 0 mm
27 juillet 06:30 13.3°C 95% 1.6 km/h SE 1013.6 hPa 0 mm
27 juillet 06:29 13.3°C 95% 1.1 km/h E 1013.6 hPa 0 mm
27 juillet 06:28 13.5°C 95% 1.6 km/h ESE 1013.6 hPa 0 mm
27 juillet 06:27 13.7°C 95% 2.1 km/h SE 1013.6 hPa 0 mm
27 juillet 06:26 13.9°C 95% 2.1 km/h SE 1013.6 hPa 0 mm
27 juillet 06:25 14.0°C 96% 0.0 km/h ESE 1013.6 hPa 0 mm
27 juillet 06:24 13.8°C 96% 0.0 km/h E 1013.6 hPa 0 mm
27 juillet 06:23 13.6°C 96% 0.0 km/h SE 1013.6 hPa 0 mm
27 juillet 06:22 13.6°C 96% 0.0 km/h SE 1013.6 hPa 0 mm
27 juillet 06:21 13.4°C 96% 0.0 km/h SE 1013.6 hPa 0 mm
27 juillet 06:20 13.0°C 96% 0.0 km/h SSE 1013.6 hPa 0 mm
27 juillet 06:19 12.7°C 95% 0.0 km/h SSE 1013.7 hPa 0 mm
27 juillet 06:18 12.7°C 95% 0.0 km/h SE 1013.7 hPa 0 mm
27 juillet 06:17 12.6°C 95% 0.0 km/h ESE 1013.7 hPa 0 mm
27 juillet 06:16 12.7°C 95% 0.0 km/h ESE 1013.8 hPa 0 mm
27 juillet 06:15 12.7°C 95% 0.0 km/h ESE 1013.7 hPa 0 mm
27 juillet 06:14 12.7°C 95% 0.0 km/h SE 1013.7 hPa 0 mm
27 juillet 06:13 12.7°C 95% 0.0 km/h SE 1013.7 hPa 0 mm
27 juillet 06:12 12.8°C 95% 0.0 km/h SE 1013.8 hPa 0 mm
27 juillet 06:11 12.8°C 95% 0.0 km/h SE 1013.8 hPa 0 mm
27 juillet 06:10 12.8°C 95% 0.0 km/h ESE 1013.8 hPa 0 mm
27 juillet 06:09 12.9°C 95% 0.0 km/h SE 1013.8 hPa 0 mm
27 juillet 06:08 12.9°C 95% 0.0 km/h SSE 1013.8 hPa 0 mm
27 juillet 06:07 12.9°C 95% 0.0 km/h SE 1013.7 hPa 0 mm
27 juillet 06:06 13.0°C 95% 0.0 km/h SE 1013.7 hPa 0 mm
27 juillet 06:05 13.0°C 95% 0.0 km/h SE 1013.7 hPa 0 mm
27 juillet 06:04 13.0°C 95% 0.0 km/h SE 1013.7 hPa 0 mm
27 juillet 06:03 13.1°C 95% 0.0 km/h SE 1013.7 hPa 0 mm
27 juillet 06:02 13.1°C 95% 0.0 km/h SE 1013.7 hPa 0 mm
27 juillet 06:01 13.1°C 95% 0.0 km/h SSE 1013.8 hPa 0 mm
27 juillet 06:00 13.2°C 95% 0.0 km/h ESE 1013.7 hPa 0 mm
27 juillet 05:59 13.1°C 95% 0.0 km/h ESE 1013.7 hPa 0 mm
27 juillet 05:58 12.8°C 95% 0.0 km/h ESE 1013.8 hPa 0 mm
27 juillet 05:57 12.7°C 95% 0.0 km/h ESE 1013.8 hPa 0 mm
27 juillet 05:56 12.7°C 95% 0.0 km/h E 1013.8 hPa 0 mm
27 juillet 05:55 12.7°C 95% 0.0 km/h SE 1013.8 hPa 0 mm
27 juillet 05:54 12.7°C 95% 0.0 km/h ESE 1013.8 hPa 0 mm
27 juillet 05:53 12.8°C 95% 0.0 km/h ESE 1013.7 hPa 0 mm
27 juillet 05:52 12.9°C 95% 0.0 km/h E 1013.8 hPa 0 mm
27 juillet 05:51 13.0°C 95% 0.0 km/h ESE 1013.8 hPa 0 mm
27 juillet 05:50 13.0°C 95% 0.0 km/h SSE 1013.8 hPa 0 mm
27 juillet 05:49 13.0°C 95% 0.0 km/h SE 1013.7 hPa 0 mm
27 juillet 05:48 13.0°C 95% 0.0 km/h SE 1013.7 hPa 0 mm
27 juillet 05:47 13.0°C 95% 0.0 km/h SE 1013.7 hPa 0 mm
27 juillet 05:46 13.0°C 95% 0.0 km/h SE 1013.7 hPa 0 mm
27 juillet 05:45 13.0°C 95% 0.0 km/h E 1013.7 hPa 0 mm
27 juillet 05:44 13.0°C 95% 0.0 km/h ESE 1013.8 hPa 0 mm
27 juillet 05:43 13.0°C 95% 0.0 km/h S 1013.8 hPa 0 mm
27 juillet 05:42 13.1°C 95% 0.0 km/h SE 1013.8 hPa 0 mm
27 juillet 05:41 13.1°C 95% 0.0 km/h ESE 1013.8 hPa 0 mm
27 juillet 05:40 13.2°C 95% 0.0 km/h SE 1013.8 hPa 0 mm
27 juillet 05:39 13.2°C 95% 0.0 km/h SE 1013.8 hPa 0 mm
27 juillet 05:38 13.3°C 95% 0.0 km/h SE 1013.7 hPa 0 mm
27 juillet 05:37 13.3°C 95% 0.0 km/h SE 1013.8 hPa 0 mm
27 juillet 05:36 13.3°C 95% 0.0 km/h SE 1013.7 hPa 0 mm
27 juillet 05:35 13.1°C 95% 0.0 km/h SE 1013.7 hPa 0 mm
27 juillet 05:34 12.9°C 95% 0.0 km/h SE 1013.7 hPa 0 mm
27 juillet 05:33 12.8°C 95% 0.0 km/h ESE 1013.7 hPa 0 mm
27 juillet 05:32 12.9°C 95% 0.0 km/h SE 1013.7 hPa 0 mm
27 juillet 05:31 12.9°C 95% 0.0 km/h SE 1013.8 hPa 0 mm
27 juillet 05:30 13.0°C 95% 0.0 km/h E 1013.8 hPa 0 mm
27 juillet 05:29 13.0°C 95% 0.0 km/h SE 1013.8 hPa 0 mm
27 juillet 05:28 13.0°C 95% 0.0 km/h SE 1013.8 hPa 0 mm
27 juillet 05:27 13.2°C 95% 0.0 km/h SE 1013.7 hPa 0 mm
27 juillet 05:26 13.1°C 95% 0.0 km/h ESE 1013.7 hPa 0 mm
27 juillet 05:25 13.1°C 95% 0.0 km/h SE 1013.7 hPa 0 mm
27 juillet 05:24 13.1°C 95% 0.0 km/h SE 1013.7 hPa 0 mm
27 juillet 05:23 13.1°C 95% 0.0 km/h SE 1013.7 hPa 0 mm
27 juillet 05:22 13.1°C 95% 0.0 km/h SE 1013.6 hPa 0 mm
27 juillet 05:21 13.0°C 94% 0.0 km/h SE 1013.7 hPa 0 mm
27 juillet 05:20 13.0°C 94% 0.0 km/h SE 1013.7 hPa 0 mm
27 juillet 05:19 13.0°C 94% 0.0 km/h SE 1013.7 hPa 0 mm
27 juillet 05:18 13.0°C 94% 0.0 km/h ESE 1013.7 hPa 0 mm
27 juillet 05:17 13.1°C 94% 0.0 km/h E 1013.7 hPa 0 mm
27 juillet 05:16 13.1°C 94% 0.0 km/h SSE 1013.7 hPa 0 mm
27 juillet 05:15 13.2°C 94% 0.0 km/h SE 1013.7 hPa 0 mm
27 juillet 05:14 13.2°C 94% 0.0 km/h SE 1013.7 hPa 0 mm
27 juillet 05:13 13.3°C 94% 0.0 km/h E 1013.7 hPa 0 mm
27 juillet 05:12 13.4°C 94% 0.0 km/h ESE 1013.7 hPa 0 mm
27 juillet 05:11 13.5°C 94% 0.0 km/h SE 1013.7 hPa 0 mm
27 juillet 05:10 13.6°C 94% 0.0 km/h SE 1013.7 hPa 0 mm
27 juillet 05:09 13.7°C 94% 0.0 km/h ESE 1013.7 hPa 0 mm
27 juillet 05:08 13.8°C 94% 0.0 km/h ESE 1013.6 hPa 0 mm
27 juillet 05:07 13.8°C 95% 0.0 km/h ESE 1013.6 hPa 0 mm
27 juillet 05:06 13.7°C 95% 0.0 km/h ESE 1013.7 hPa 0 mm
27 juillet 05:05 13.6°C 95% 0.0 km/h SE 1013.6 hPa 0 mm
27 juillet 05:04 13.4°C 95% 0.0 km/h ESE 1013.7 hPa 0 mm
27 juillet 05:03 13.4°C 95% 0.0 km/h SE 1013.7 hPa 0 mm
27 juillet 05:02 13.2°C 95% 0.0 km/h SSE 1013.7 hPa 0 mm
27 juillet 05:01 13.1°C 94% 0.0 km/h E 1013.7 hPa 0 mm
27 juillet 05:00 13.1°C 94% 0.0 km/h ESE 1013.7 hPa 0 mm
27 juillet 04:59 13.2°C 94% 0.0 km/h ESE 1013.7 hPa 0 mm
27 juillet 04:58 13.2°C 94% 0.0 km/h SE 1013.7 hPa 0 mm
27 juillet 04:57 13.2°C 94% 0.0 km/h SE 1013.7 hPa 0 mm
27 juillet 04:56 13.3°C 94% 0.0 km/h ESE 1013.8 hPa 0 mm
27 juillet 04:55 13.3°C 94% 0.0 km/h ESE 1013.7 hPa 0 mm
27 juillet 04:54 13.3°C 94% 0.0 km/h SE 1013.7 hPa 0 mm
27 juillet 04:53 13.4°C 94% 0.0 km/h SE 1013.7 hPa 0 mm
27 juillet 04:52 13.4°C 94% 0.0 km/h SE 1013.8 hPa 0 mm
27 juillet 04:51 13.4°C 94% 0.0 km/h ESE 1013.8 hPa 0 mm
27 juillet 04:50 13.3°C 94% 0.0 km/h ESE 1013.8 hPa 0 mm
27 juillet 04:49 13.4°C 94% 0.0 km/h SE 1013.8 hPa 0 mm
27 juillet 04:48 13.4°C 94% 0.0 km/h SE 1013.8 hPa 0 mm
27 juillet 04:47 13.5°C 94% 0.0 km/h ESE 1013.9 hPa 0 mm
27 juillet 04:46 13.5°C 94% 0.0 km/h SE 1013.9 hPa 0 mm
27 juillet 04:45 13.5°C 94% 0.0 km/h ESE 1013.9 hPa 0 mm
27 juillet 04:44 13.5°C 94% 0.0 km/h E 1013.9 hPa 0 mm
27 juillet 04:43 13.5°C 94% 0.0 km/h ESE 1013.9 hPa 0 mm
27 juillet 04:42 13.5°C 94% 0.0 km/h SE 1013.9 hPa 0 mm
27 juillet 04:41 13.5°C 94% 0.0 km/h SE 1013.9 hPa 0 mm
27 juillet 04:40 13.5°C 94% 0.0 km/h SE 1013.9 hPa 0 mm
27 juillet 04:39 13.5°C 94% 0.0 km/h ESE 1014.0 hPa 0 mm
27 juillet 04:38 13.5°C 94% 0.0 km/h ESE 1014.0 hPa 0 mm
27 juillet 04:37 13.5°C 94% 1.6 km/h ESE 1014.0 hPa 0 mm
27 juillet 04:36 13.6°C 94% 1.6 km/h E 1014.0 hPa 0 mm
27 juillet 04:35 13.6°C 94% 1.6 km/h SE 1014.0 hPa 0 mm
27 juillet 04:34 13.6°C 94% 2.1 km/h ESE 1014.1 hPa 0 mm
27 juillet 04:33 13.6°C 94% 1.1 km/h SSE 1014.1 hPa 0 mm
27 juillet 04:32 13.6°C 94% 1.1 km/h SE 1014.1 hPa 0 mm
27 juillet 04:31 13.6°C 94% 0.5 km/h ESE 1014.1 hPa 0 mm
27 juillet 04:30 13.7°C 94% 1.1 km/h ENE 1014.1 hPa 0 mm
27 juillet 04:29 13.7°C 94% 0.5 km/h SE 1014.1 hPa 0 mm
27 juillet 04:28 13.8°C 95% 0.5 km/h SE 1014.1 hPa 0 mm
27 juillet 04:27 13.8°C 95% 2.1 km/h SE 1014.2 hPa 0 mm
27 juillet 04:26 13.6°C 95% 2.1 km/h SE 1014.2 hPa 0 mm
27 juillet 04:25 13.4°C 95% 3.2 km/h SSE 1014.2 hPa 0 mm
27 juillet 04:24 13.4°C 95% 1.1 km/h SSE 1014.2 hPa 0 mm
27 juillet 04:23 13.3°C 95% 1.6 km/h SE 1014.2 hPa 0 mm
27 juillet 04:22 13.2°C 95% 2.1 km/h SE 1014.2 hPa 0 mm
27 juillet 04:21 13.1°C 95% 1.6 km/h SE 1014.2 hPa 0 mm
27 juillet 04:20 13.1°C 95% 2.6 km/h SSE 1014.2 hPa 0 mm
27 juillet 04:19 13.2°C 95% 2.6 km/h SSO 1014.2 hPa 0 mm
27 juillet 04:18 13.2°C 95% 2.1 km/h S 1014.1 hPa 0 mm
27 juillet 04:17 13.2°C 95% 2.1 km/h SE 1014.2 hPa 0 mm
27 juillet 04:16 13.2°C 95% 2.1 km/h SSE 1014.2 hPa 0 mm
27 juillet 04:15 13.2°C 95% 2.1 km/h ESE 1014.2 hPa 0 mm
27 juillet 04:14 13.3°C 95% 1.6 km/h SE 1014.2 hPa 0 mm
27 juillet 04:13 13.2°C 95% 1.6 km/h ESE 1014.2 hPa 0 mm
27 juillet 04:12 13.2°C 95% 1.1 km/h ESE 1014.2 hPa 0 mm
27 juillet 04:11 13.2°C 95% 1.1 km/h SE 1014.1 hPa 0 mm
27 juillet 04:10 13.2°C 95% 0.0 km/h SE 1014.2 hPa 0 mm
27 juillet 04:09 13.2°C 95% 0.0 km/h ESE 1014.1 hPa 0 mm
27 juillet 04:08 13.2°C 95% 0.0 km/h SE 1014.2 hPa 0 mm
27 juillet 04:07 13.3°C 95% 0.0 km/h SE 1014.1 hPa 0 mm
27 juillet 04:06 13.3°C 95% 1.1 km/h E 1014.2 hPa 0 mm
27 juillet 04:05 13.3°C 95% 1.1 km/h SE 1014.2 hPa 0 mm
27 juillet 04:04 13.2°C 95% 1.1 km/h SE 1014.1 hPa 0 mm
27 juillet 04:03 13.2°C 94% 1.6 km/h E 1014.2 hPa 0 mm
27 juillet 04:02 13.3°C 94% 2.1 km/h S 1014.2 hPa 0 mm
27 juillet 04:01 13.3°C 94% 0.0 km/h ESE 1014.2 hPa 0 mm
27 juillet 04:00 13.3°C 94% 0.0 km/h E 1014.2 hPa 0 mm
27 juillet 03:59 13.4°C 94% 2.1 km/h E 1014.2 hPa 0 mm
27 juillet 03:58 13.4°C 94% 3.2 km/h SSO 1014.2 hPa 0 mm
27 juillet 03:57 13.4°C 94% 2.1 km/h ESE 1014.2 hPa 0 mm
27 juillet 03:56 13.4°C 94% 2.1 km/h ESE 1014.1 hPa 0 mm
27 juillet 03:55 13.4°C 94% 1.6 km/h S 1014.2 hPa 0 mm
27 juillet 03:54 13.4°C 94% 1.6 km/h SE 1014.2 hPa 0 mm
27 juillet 03:53 13.3°C 94% 1.1 km/h ESE 1014.2 hPa 0 mm
27 juillet 03:52 13.3°C 94% 1.1 km/h E 1014.2 hPa 0 mm
27 juillet 03:51 13.4°C 94% 1.1 km/h SE 1014.2 hPa 0 mm
27 juillet 03:50 13.3°C 94% 1.6 km/h SSE 1014.2 hPa 0 mm
27 juillet 03:49 13.4°C 94% 2.1 km/h SE 1014.1 hPa 0 mm
27 juillet 03:48 13.4°C 94% 1.6 km/h SE 1014.2 hPa 0 mm
27 juillet 03:47 13.5°C 94% 1.6 km/h SE 1014.1 hPa 0 mm
27 juillet 03:46 13.5°C 94% 2.1 km/h SE 1014.2 hPa 0 mm
27 juillet 03:45 13.6°C 94% 0.0 km/h ESE 1014.1 hPa 0 mm
27 juillet 03:44 13.6°C 94% 0.0 km/h SSE 1014.1 hPa 0 mm
27 juillet 03:43 13.6°C 94% 0.0 km/h SE 1014.1 hPa 0 mm
27 juillet 03:42 13.5°C 94% 0.0 km/h E 1014.1 hPa 0 mm
27 juillet 03:41 13.5°C 94% 0.0 km/h SE 1014.1 hPa 0 mm
27 juillet 03:40 13.5°C 94% 0.0 km/h SE 1014.1 hPa 0 mm
27 juillet 03:39 13.5°C 94% 0.0 km/h SSE 1014.2 hPa 0 mm
27 juillet 03:38 13.5°C 94% 0.5 km/h ENE 1014.2 hPa 0 mm
27 juillet 03:37 13.5°C 94% 1.1 km/h ESE 1014.2 hPa 0 mm
27 juillet 03:36 13.6°C 94% 0.5 km/h ESE 1014.2 hPa 0 mm
27 juillet 03:35 13.6°C 94% 0.5 km/h ESE 1014.2 hPa 0 mm
27 juillet 03:34 13.6°C 94% 1.6 km/h ESE 1014.2 hPa 0 mm
27 juillet 03:33 13.7°C 94% 1.1 km/h E 1014.3 hPa 0 mm
27 juillet 03:32 13.8°C 94% 1.6 km/h SE 1014.2 hPa 0 mm
27 juillet 03:31 13.8°C 94% 2.1 km/h ESE 1014.3 hPa 0 mm
27 juillet 03:30 13.8°C 94% 1.6 km/h E 1014.3 hPa 0 mm
27 juillet 03:29 13.8°C 94% 1.6 km/h E 1014.3 hPa 0 mm
27 juillet 03:28 13.8°C 94% 1.6 km/h SE 1014.3 hPa 0 mm
27 juillet 03:27 13.6°C 94% 1.6 km/h SE 1014.3 hPa 0 mm
27 juillet 03:26 13.6°C 94% 0.0 km/h ESE 1014.3 hPa 0 mm
27 juillet 03:25 13.6°C 94% 0.0 km/h SE 1014.3 hPa 0 mm
27 juillet 03:24 13.7°C 94% 1.1 km/h E 1014.3 hPa 0 mm
27 juillet 03:23 13.6°C 94% 1.6 km/h SE 1014.3 hPa 0 mm
27 juillet 03:22 13.6°C 94% 1.6 km/h SE 1014.3 hPa 0 mm
27 juillet 03:21 13.6°C 94% 0.5 km/h ESE 1014.3 hPa 0 mm
27 juillet 03:20 13.6°C 94% 0.5 km/h ESE 1014.3 hPa 0 mm
27 juillet 03:19 13.6°C 94% 1.1 km/h ESE 1014.3 hPa 0 mm
27 juillet 03:18 13.6°C 94% 1.6 km/h ENE 1014.3 hPa 0 mm
27 juillet 03:17 13.6°C 94% 1.6 km/h SE 1014.3 hPa 0 mm
27 juillet 03:16 13.6°C 94% 0.0 km/h SE 1014.3 hPa 0 mm
27 juillet 03:15 13.6°C 94% 0.0 km/h SSE 1014.3 hPa 0 mm
27 juillet 03:14 13.6°C 94% 0.0 km/h SE 1014.3 hPa 0 mm
27 juillet 03:13 13.6°C 94% 0.0 km/h SSE 1014.4 hPa 0 mm
27 juillet 03:12 13.6°C 94% 0.0 km/h E 1014.4 hPa 0 mm
27 juillet 03:11 13.7°C 94% 0.5 km/h E 1014.4 hPa 0 mm
27 juillet 03:10 13.6°C 94% 1.1 km/h ESE 1014.4 hPa 0 mm
27 juillet 03:09 13.7°C 94% 1.1 km/h SE 1014.4 hPa 0 mm
27 juillet 03:08 13.7°C 94% 1.6 km/h SSE 1014.4 hPa 0 mm
27 juillet 03:07 13.8°C 94% 1.6 km/h SE 1014.4 hPa 0 mm
27 juillet 03:06 13.8°C 94% 1.1 km/h ESE 1014.4 hPa 0 mm
27 juillet 03:05 13.7°C 94% 1.1 km/h SE 1014.4 hPa 0 mm
27 juillet 03:04 13.7°C 94% 1.1 km/h SE 1014.4 hPa 0 mm
27 juillet 03:03 13.7°C 94% 1.1 km/h ESE 1014.4 hPa 0 mm
27 juillet 03:02 13.7°C 94% 1.1 km/h E 1014.5 hPa 0 mm
27 juillet 03:01 13.8°C 94% 2.1 km/h SE 1014.4 hPa 0 mm
27 juillet 03:00 13.8°C 94% 2.6 km/h S 1014.4 hPa 0 mm
27 juillet 02:59 13.8°C 94% 1.6 km/h ESE 1014.4 hPa 0 mm
27 juillet 02:58 13.8°C 94% 0.5 km/h SE 1014.4 hPa 0 mm
27 juillet 02:57 13.8°C 94% 0.0 km/h SE 1014.4 hPa 0 mm
27 juillet 02:56 13.8°C 94% 0.0 km/h SE 1014.4 hPa 0 mm
27 juillet 02:55 13.7°C 94% 0.0 km/h E 1014.4 hPa 0 mm
27 juillet 02:54 13.7°C 94% 0.0 km/h ESE 1014.5 hPa 0 mm
27 juillet 02:53 13.7°C 94% 0.0 km/h E 1014.5 hPa 0 mm
27 juillet 02:52 13.7°C 94% 0.0 km/h ESE 1014.5 hPa 0 mm
27 juillet 02:51 13.7°C 94% 0.0 km/h ESE 1014.5 hPa 0 mm
27 juillet 02:50 13.8°C 94% 0.5 km/h ESE 1014.5 hPa 0 mm
27 juillet 02:49 13.8°C 94% 1.1 km/h SE 1014.5 hPa 0 mm
27 juillet 02:48 13.8°C 94% 1.1 km/h ENE 1014.5 hPa 0 mm
27 juillet 02:47 13.8°C 94% 0.0 km/h ESE 1014.5 hPa 0 mm
27 juillet 02:46 13.8°C 93% 0.0 km/h E 1014.5 hPa 0 mm
27 juillet 02:45 13.8°C 94% 0.0 km/h E 1014.5 hPa 0 mm
27 juillet 02:44 13.9°C 94% 0.0 km/h ESE 1014.5 hPa 0 mm
27 juillet 02:43 13.8°C 94% 0.0 km/h ESE 1014.5 hPa 0 mm
27 juillet 02:42 13.8°C 94% 0.0 km/h ESE 1014.5 hPa 0 mm
27 juillet 02:41 13.8°C 94% 0.0 km/h ESE 1014.5 hPa 0 mm
27 juillet 02:40 13.8°C 94% 0.0 km/h SE 1014.5 hPa 0 mm
27 juillet 02:39 13.8°C 94% 0.5 km/h SSE 1014.5 hPa 0 mm
27 juillet 02:38 13.8°C 94% 0.0 km/h SE 1014.4 hPa 0 mm
27 juillet 02:37 13.7°C 94% 0.0 km/h ESE 1014.5 hPa 0 mm
27 juillet 02:36 13.7°C 94% 0.0 km/h ESE 1014.5 hPa 0 mm
27 juillet 02:35 13.7°C 94% 0.5 km/h ESE 1014.5 hPa 0 mm
27 juillet 02:34 13.7°C 93% 1.1 km/h ESE 1014.5 hPa 0 mm
27 juillet 02:33 13.7°C 93% 0.5 km/h SE 1014.4 hPa 0 mm
27 juillet 02:32 13.7°C 93% 1.1 km/h ESE 1014.5 hPa 0 mm
27 juillet 02:31 13.8°C 93% 1.1 km/h E 1014.5 hPa 0 mm
27 juillet 02:30 13.8°C 93% 1.1 km/h ESE 1014.5 hPa 0 mm
27 juillet 02:29 13.8°C 93% 1.6 km/h SE 1014.5 hPa 0 mm
27 juillet 02:28 13.9°C 93% 2.1 km/h E 1014.5 hPa 0 mm
27 juillet 02:27 13.8°C 93% 1.6 km/h ESE 1014.5 hPa 0 mm
27 juillet 02:26 13.8°C 93% 2.1 km/h SE 1014.5 hPa 0 mm
27 juillet 02:25 13.8°C 93% 2.1 km/h E 1014.5 hPa 0 mm
27 juillet 02:24 13.9°C 93% 2.1 km/h ESE 1014.5 hPa 0 mm
27 juillet 02:23 13.9°C 93% 1.6 km/h ESE 1014.5 hPa 0 mm
27 juillet 02:22 14.0°C 93% 1.1 km/h SE 1014.5 hPa 0 mm
27 juillet 02:21 14.1°C 93% 1.6 km/h SSE 1014.5 hPa 0 mm
27 juillet 02:20 14.1°C 93% 2.1 km/h SE 1014.5 hPa 0 mm
27 juillet 02:19 14.0°C 93% 1.6 km/h ESE 1014.5 hPa 0 mm
27 juillet 02:18 14.0°C 93% 1.1 km/h SE 1014.5 hPa 0 mm
27 juillet 02:17 13.9°C 93% 0.0 km/h SE 1014.5 hPa 0 mm
27 juillet 02:16 13.9°C 93% 0.0 km/h SE 1014.5 hPa 0 mm
27 juillet 02:15 13.9°C 93% 0.0 km/h SE 1014.5 hPa 0 mm
27 juillet 02:14 13.9°C 93% 0.5 km/h SE 1014.5 hPa 0 mm
27 juillet 02:13 13.9°C 93% 0.5 km/h ESE 1014.5 hPa 0 mm
27 juillet 02:12 13.9°C 93% 1.1 km/h ESE 1014.5 hPa 0 mm
27 juillet 02:11 13.9°C 93% 1.1 km/h SE 1014.5 hPa 0 mm
27 juillet 02:10 14.0°C 93% 2.1 km/h ESE 1014.5 hPa 0 mm
27 juillet 02:09 14.0°C 93% 2.1 km/h SE 1014.4 hPa 0 mm
27 juillet 02:08 14.1°C 93% 1.6 km/h SE 1014.5 hPa 0 mm
27 juillet 02:07 14.1°C 92% 2.1 km/h SSE 1014.5 hPa 0 mm
27 juillet 02:06 14.2°C 92% 1.6 km/h SSE 1014.5 hPa 0 mm
27 juillet 02:05 14.2°C 92% 1.1 km/h SE 1014.4 hPa 0 mm
27 juillet 02:04 14.2°C 92% 1.6 km/h ESE 1014.4 hPa 0 mm
27 juillet 02:03 14.2°C 92% 2.1 km/h SSE 1014.5 hPa 0 mm
27 juillet 02:02 14.3°C 92% 1.6 km/h SE 1014.4 hPa 0 mm
27 juillet 02:01 14.3°C 92% 1.6 km/h ESE 1014.4 hPa 0 mm
27 juillet 02:00 14.3°C 92% 2.1 km/h ESE 1014.4 hPa 0 mm
27 juillet 01:59 14.3°C 92% 2.1 km/h ESE 1014.4 hPa 0 mm
27 juillet 01:58 14.2°C 92% 2.1 km/h SE 1014.4 hPa 0 mm
27 juillet 01:57 14.2°C 92% 1.6 km/h E 1014.4 hPa 0 mm
27 juillet 01:56 14.3°C 92% 1.1 km/h SE 1014.4 hPa 0 mm
27 juillet 01:55 14.3°C 92% 0.5 km/h SE 1014.4 hPa 0 mm
27 juillet 01:54 14.4°C 91% 1.1 km/h SSE 1014.4 hPa 0 mm
27 juillet 01:53 14.4°C 91% 1.6 km/h ESE 1014.4 hPa 0 mm
27 juillet 01:52 14.5°C 91% 1.1 km/h SE 1014.5 hPa 0 mm
27 juillet 01:51 14.6°C 91% 1.1 km/h ESE 1014.5 hPa 0 mm
27 juillet 01:50 14.6°C 91% 1.1 km/h SE 1014.5 hPa 0 mm
27 juillet 01:49 14.7°C 91% 1.1 km/h ESE 1014.5 hPa 0 mm
27 juillet 01:48 14.8°C 91% 0.5 km/h E 1014.5 hPa 0 mm
27 juillet 01:47 14.8°C 90% 0.5 km/h ESE 1014.5 hPa 0 mm
27 juillet 01:46 15.0°C 90% 1.1 km/h SE 1014.6 hPa 0 mm
27 juillet 01:45 15.0°C 90% 2.1 km/h ESE 1014.6 hPa 0 mm
27 juillet 01:44 15.1°C 90% 1.6 km/h ESE 1014.6 hPa 0 mm
27 juillet 01:43 15.3°C 90% 1.1 km/h SE 1014.6 hPa 0 mm
27 juillet 01:42 15.3°C 90% 1.1 km/h SE 1014.6 hPa 0 mm
27 juillet 01:41 15.2°C 91% 1.1 km/h ESE 1014.6 hPa 0 mm
27 juillet 01:40 15.1°C 91% 1.1 km/h SE 1014.7 hPa 0 mm
27 juillet 01:39 14.9°C 92% 1.1 km/h SE 1014.6 hPa 0 mm
27 juillet 01:38 14.5°C 92% 1.6 km/h SE 1014.6 hPa 0 mm
27 juillet 01:37 14.5°C 92% 0.5 km/h SE 1014.6 hPa 0 mm
27 juillet 01:36 14.6°C 92% 1.1 km/h ESE 1014.7 hPa 0 mm
27 juillet 01:35 14.7°C 92% 1.6 km/h SE 1014.7 hPa 0 mm
27 juillet 01:34 14.7°C 93% 2.6 km/h ESE 1014.7 hPa 0 mm
27 juillet 01:33 14.4°C 93% 2.6 km/h ESE 1014.7 hPa 0 mm
27 juillet 01:32 14.3°C 93% 1.1 km/h SE 1014.7 hPa 0 mm
27 juillet 01:31 14.3°C 93% 1.6 km/h ESE 1014.7 hPa 0 mm
27 juillet 01:30 14.3°C 93% 0.5 km/h ENE 1014.7 hPa 0 mm
27 juillet 01:29 14.3°C 93% 1.1 km/h ESE 1014.7 hPa 0 mm
27 juillet 01:28 14.3°C 92% 2.6 km/h SE 1014.7 hPa 0 mm
27 juillet 01:27 14.3°C 92% 2.1 km/h SE 1014.8 hPa 0 mm
27 juillet 01:26 14.3°C 92% 2.1 km/h SSE 1014.8 hPa 0 mm
27 juillet 01:25 14.3°C 92% 2.1 km/h S 1014.8 hPa 0 mm
27 juillet 01:24 14.3°C 92% 2.1 km/h SE 1014.8 hPa 0 mm
27 juillet 01:23 14.4°C 92% 2.1 km/h ESE 1014.8 hPa 0 mm
27 juillet 01:22 14.4°C 92% 0.0 km/h SE 1014.8 hPa 0 mm
27 juillet 01:21 14.4°C 92% 0.0 km/h SE 1014.8 hPa 0 mm
27 juillet 01:20 14.4°C 92% 0.5 km/h E 1014.8 hPa 0 mm
27 juillet 01:19 14.4°C 92% 1.1 km/h SE 1014.8 hPa 0 mm
27 juillet 01:18 14.4°C 92% 1.1 km/h ESE 1014.8 hPa 0 mm
27 juillet 01:17 14.4°C 92% 1.6 km/h SE 1014.9 hPa 0 mm
27 juillet 01:16 14.3°C 92% 1.6 km/h SE 1014.8 hPa 0 mm
27 juillet 01:15 14.3°C 92% 1.1 km/h E 1014.8 hPa 0 mm
27 juillet 01:14 14.3°C 92% 0.5 km/h ESE 1014.9 hPa 0 mm
27 juillet 01:13 14.3°C 92% 1.1 km/h ESE 1014.9 hPa 0 mm
27 juillet 01:12 14.4°C 92% 1.1 km/h ESE 1014.9 hPa 0 mm
27 juillet 01:11 14.4°C 92% 2.1 km/h SE 1014.9 hPa 0 mm
27 juillet 01:10 14.4°C 92% 1.6 km/h SE 1014.9 hPa 0 mm
27 juillet 01:09 14.4°C 92% 2.1 km/h E 1014.9 hPa 0 mm
27 juillet 01:08 14.4°C 92% 2.1 km/h SSE 1015.0 hPa 0 mm
27 juillet 01:07 14.5°C 92% 2.1 km/h SE 1015.0 hPa 0 mm
27 juillet 01:06 14.5°C 92% 1.6 km/h ESE 1014.9 hPa 0 mm
27 juillet 01:05 14.5°C 92% 2.1 km/h E 1014.9 hPa 0 mm
27 juillet 01:04 14.6°C 92% 2.6 km/h SE 1014.9 hPa 0 mm
27 juillet 01:03 14.6°C 92% 2.6 km/h SSE 1014.9 hPa 0 mm
27 juillet 01:02 14.6°C 92% 2.1 km/h SSE 1014.9 hPa 0 mm
27 juillet 01:01 14.6°C 92% 2.1 km/h ESE 1015.0 hPa 0 mm
27 juillet 01:00 14.6°C 91% 1.6 km/h ESE 1014.9 hPa 0 mm
27 juillet 00:59 14.7°C 91% 1.6 km/h SE 1015.0 hPa 0 mm
27 juillet 00:58 14.7°C 91% 2.1 km/h SE 1014.9 hPa 0 mm
27 juillet 00:57 14.7°C 91% 1.6 km/h ESE 1014.9 hPa 0 mm
27 juillet 00:56 14.7°C 91% 2.1 km/h SE 1014.9 hPa 0 mm
27 juillet 00:55 14.7°C 91% 2.1 km/h ESE 1014.9 hPa 0 mm
27 juillet 00:54 14.8°C 91% 1.6 km/h ESE 1014.9 hPa 0 mm
27 juillet 00:53 14.8°C 91% 1.6 km/h ESE 1014.9 hPa 0 mm
27 juillet 00:52 14.8°C 91% 2.1 km/h SE 1014.9 hPa 0 mm
27 juillet 00:51 14.8°C 91% 2.1 km/h SSE 1014.9 hPa 0 mm
27 juillet 00:50 14.9°C 91% 2.1 km/h SE 1015.0 hPa 0 mm
27 juillet 00:49 14.9°C 90% 2.1 km/h S 1014.9 hPa 0 mm
27 juillet 00:48 14.9°C 90% 0.0 km/h SE 1015.0 hPa 0 mm
27 juillet 00:47 14.9°C 90% 0.0 km/h ESE 1014.9 hPa 0 mm
27 juillet 00:46 15.0°C 90% 1.1 km/h SE 1014.9 hPa 0 mm
27 juillet 00:45 15.0°C 90% 1.1 km/h SSE 1014.9 hPa 0 mm
27 juillet 00:44 15.1°C 90% 1.6 km/h E 1015.0 hPa 0 mm
27 juillet 00:43 15.0°C 90% 1.1 km/h ENE 1014.9 hPa 0 mm
27 juillet 00:42 15.0°C 90% 0.5 km/h SE 1014.9 hPa 0 mm
27 juillet 00:41 15.0°C 90% 1.1 km/h ESE 1015.0 hPa 0 mm
27 juillet 00:40 15.0°C 90% 1.6 km/h SE 1014.9 hPa 0 mm
27 juillet 00:39 15.0°C 90% 1.6 km/h ESE 1015.0 hPa 0 mm
27 juillet 00:38 15.1°C 90% 1.6 km/h ESE 1014.9 hPa 0 mm
27 juillet 00:37 15.2°C 89% 1.6 km/h ESE 1015.0 hPa 0 mm
27 juillet 00:36 15.3°C 89% 1.6 km/h SSE 1014.9 hPa 0 mm
27 juillet 00:35 15.4°C 89% 1.6 km/h E 1014.9 hPa 0 mm
27 juillet 00:34 15.3°C 90% 0.5 km/h SSE 1014.9 hPa 0 mm
27 juillet 00:33 15.3°C 90% 1.6 km/h ESE 1014.9 hPa 0 mm
27 juillet 00:32 15.2°C 91% 2.6 km/h SE 1014.9 hPa 0 mm
27 juillet 00:31 14.9°C 91% 2.1 km/h E 1014.9 hPa 0 mm
27 juillet 00:30 14.9°C 91% 1.1 km/h SE 1014.9 hPa 0 mm
27 juillet 00:29 14.8°C 91% 0.0 km/h SE 1014.9 hPa 0 mm
27 juillet 00:28 14.8°C 91% 2.1 km/h SSE 1014.9 hPa 0 mm
27 juillet 00:28 14.8°C 91% 1.6 km/h SE 1014.9 hPa 0 mm
27 juillet 00:27 14.8°C 91% 2.1 km/h SE 1014.9 hPa 0 mm
27 juillet 00:26 14.8°C 91% 1.1 km/h SE 1014.9 hPa 0 mm
27 juillet 00:25 14.8°C 91% 1.6 km/h ESE 1014.9 hPa 0 mm
27 juillet 00:24 14.8°C 91% 2.1 km/h S 1014.9 hPa 0 mm
27 juillet 00:23 14.8°C 91% 1.1 km/h SE 1014.9 hPa 0 mm
27 juillet 00:22 14.8°C 91% 1.6 km/h E 1015.0 hPa 0 mm
27 juillet 00:21 14.9°C 90% 1.6 km/h SE 1014.9 hPa 0 mm
27 juillet 00:20 14.9°C 90% 2.1 km/h ESE 1015.0 hPa 0 mm
27 juillet 00:19 15.0°C 90% 2.6 km/h S 1015.0 hPa 0 mm
27 juillet 00:18 15.0°C 90% 3.2 km/h SSO 1014.9 hPa 0 mm
27 juillet 00:17 15.1°C 90% 3.2 km/h S 1014.9 hPa 0 mm
27 juillet 00:16 15.2°C 89% 3.2 km/h S 1014.9 hPa 0 mm
27 juillet 00:15 15.2°C 89% 2.6 km/h S 1014.9 hPa 0 mm
27 juillet 00:14 15.3°C 89% 2.1 km/h SSE 1014.8 hPa 0 mm
27 juillet 00:13 15.4°C 89% 2.1 km/h S 1014.8 hPa 0 mm
27 juillet 00:12 15.4°C 89% 2.6 km/h S 1014.8 hPa 0 mm
27 juillet 00:11 15.6°C 88% 2.1 km/h SO 1014.8 hPa 0 mm
27 juillet 00:10 15.7°C 88% 2.1 km/h S 1014.8 hPa 0 mm
27 juillet 00:09 15.9°C 88% 2.1 km/h ESE 1014.8 hPa 0 mm
27 juillet 00:08 16.0°C 87% 0.0 km/h SE 1014.8 hPa 0 mm
27 juillet 00:07 16.1°C 87% 0.0 km/h SE 1014.8 hPa 0 mm
27 juillet 00:06 16.1°C 87% 0.5 km/h ESE 1014.8 hPa 0 mm
27 juillet 00:05 16.1°C 87% 0.5 km/h ENE 1014.8 hPa 0 mm
27 juillet 00:04 15.9°C 88% 1.1 km/h SE 1014.8 hPa 0 mm
27 juillet 00:03 15.9°C 88% 0.5 km/h ESE 1014.8 hPa 0 mm
27 juillet 00:02 15.9°C 88% 1.1 km/h E 1014.8 hPa 0 mm
27 juillet 00:01 15.8°C 88% 1.1 km/h E 1014.8 hPa 0 mm
27 juillet 00:00 15.7°C 88% 1.1 km/h E 1014.8 hPa 0 mm
26 juillet 23:59 15.8°C 88% 1.1 km/h E 1014.8 hPa 0 mm
26 juillet 23:58 15.9°C 88% 0.5 km/h SE 1014.8 hPa 0 mm
26 juillet 23:57 15.8°C 89% 1.1 km/h SE 1014.8 hPa 0 mm
26 juillet 23:56 15.7°C 89% 1.1 km/h SE 1014.8 hPa 0 mm
26 juillet 23:55 15.7°C 89% 1.1 km/h ESE 1014.8 hPa 0 mm
26 juillet 23:54 15.6°C 89% 1.1 km/h SE 1014.8 hPa 0 mm
26 juillet 23:53 15.7°C 89% 1.1 km/h ESE 1014.8 hPa 0 mm
26 juillet 23:52 15.6°C 90% 1.1 km/h SE 1014.8 hPa 0 mm
26 juillet 23:51 15.4°C 91% 0.0 km/h SE 1014.7 hPa 0 mm
26 juillet 23:50 15.2°C 91% 0.5 km/h ESE 1014.7 hPa 0 mm
26 juillet 23:49 15.2°C 91% 0.5 km/h SSE 1014.7 hPa 0 mm
26 juillet 23:48 15.2°C 91% 1.1 km/h SE 1014.7 hPa 0 mm
26 juillet 23:47 15.2°C 91% 1.6 km/h SE 1014.7 hPa 0 mm
26 juillet 23:46 15.2°C 91% 2.1 km/h E 1014.7 hPa 0 mm
26 juillet 23:45 15.2°C 91% 0.0 km/h SE 1014.7 hPa 0 mm
26 juillet 23:44 15.2°C 91% 0.0 km/h ESE 1014.7 hPa 0 mm
26 juillet 23:43 15.2°C 91% 0.0 km/h E 1014.7 hPa 0 mm
26 juillet 23:42 15.3°C 91% 0.0 km/h E 1014.8 hPa 0 mm
26 juillet 23:41 15.3°C 91% 0.0 km/h ESE 1014.8 hPa 0 mm
26 juillet 23:40 15.3°C 90% 0.0 km/h E 1014.8 hPa 0 mm
26 juillet 23:39 15.3°C 90% 0.0 km/h E 1014.8 hPa 0 mm
26 juillet 23:38 15.3°C 90% 0.5 km/h SE 1014.7 hPa 0 mm
26 juillet 23:37 15.3°C 90% 1.1 km/h ESE 1014.8 hPa 0 mm
26 juillet 23:36 15.4°C 90% 1.6 km/h ESE 1014.7 hPa 0 mm
26 juillet 23:35 15.4°C 90% 1.6 km/h SSE 1014.7 hPa 0 mm
26 juillet 23:34 15.5°C 90% 2.1 km/h SSE 1014.8 hPa 0 mm
26 juillet 23:33 15.5°C 90% 2.6 km/h SSO 1014.7 hPa 0 mm
26 juillet 23:32 15.6°C 90% 2.6 km/h S 1014.7 hPa 0 mm
26 juillet 23:31 15.6°C 90% 2.6 km/h S 1014.7 hPa 0 mm
26 juillet 23:30 15.6°C 90% 2.1 km/h SE 1014.7 hPa 0 mm
26 juillet 23:29 15.6°C 90% 1.6 km/h SE 1014.7 hPa 0 mm
26 juillet 23:28 15.6°C 90% 1.6 km/h SE 1014.6 hPa 0 mm
26 juillet 23:27 15.6°C 89% 1.1 km/h SE 1014.6 hPa 0 mm
26 juillet 23:26 15.6°C 89% 1.6 km/h ESE 1014.6 hPa 0 mm
26 juillet 23:25 15.7°C 89% 1.6 km/h ESE 1014.6 hPa 0 mm
26 juillet 23:24 15.7°C 89% 1.6 km/h SE 1014.6 hPa 0 mm
26 juillet 23:23 15.8°C 89% 1.6 km/h ESE 1014.6 hPa 0 mm
26 juillet 23:22 15.7°C 89% 1.6 km/h ESE 1014.6 hPa 0 mm
26 juillet 23:21 15.7°C 89% 1.6 km/h SE 1014.6 hPa 0 mm
26 juillet 23:20 15.8°C 89% 0.5 km/h ESE 1014.6 hPa 0 mm
26 juillet 23:19 15.8°C 89% 1.1 km/h ENE 1014.6 hPa 0 mm
26 juillet 23:18 15.8°C 89% 1.1 km/h SE 1014.6 hPa 0 mm
26 juillet 23:17 15.8°C 89% 1.1 km/h SE 1014.6 hPa 0 mm
26 juillet 23:16 15.9°C 89% 2.1 km/h E 1014.6 hPa 0 mm
26 juillet 23:15 15.9°C 89% 2.1 km/h ESE 1014.6 hPa 0 mm
26 juillet 23:14 15.9°C 89% 2.6 km/h SSE 1014.6 hPa 0 mm
26 juillet 23:13 16.0°C 88% 2.6 km/h SSE 1014.5 hPa 0 mm
26 juillet 23:12 16.0°C 88% 2.6 km/h ESE 1014.5 hPa 0 mm
26 juillet 23:11 16.0°C 88% 1.6 km/h E 1014.5 hPa 0 mm
26 juillet 23:10 16.0°C 88% 1.1 km/h SE 1014.5 hPa 0 mm
26 juillet 23:09 16.1°C 88% 2.1 km/h ESE 1014.5 hPa 0 mm
26 juillet 23:08 16.1°C 88% 2.1 km/h SSE 1014.5 hPa 0 mm
26 juillet 23:07 16.1°C 88% 2.1 km/h S 1014.5 hPa 0 mm
26 juillet 23:06 16.1°C 88% 2.6 km/h S 1014.5 hPa 0 mm
26 juillet 23:05 16.1°C 88% 2.6 km/h SSO 1014.5 hPa 0 mm
26 juillet 23:04 16.1°C 88% 2.6 km/h S 1014.4 hPa 0 mm
26 juillet 23:03 16.1°C 88% 2.6 km/h S 1014.4 hPa 0 mm
26 juillet 23:02 16.2°C 87% 2.1 km/h SE 1014.4 hPa 0 mm
26 juillet 23:01 16.2°C 87% 2.1 km/h SE 1014.4 hPa 0 mm
26 juillet 23:00 16.3°C 87% 2.1 km/h SSO 1014.4 hPa 0 mm
26 juillet 22:59 16.3°C 87% 1.6 km/h S 1014.4 hPa 0 mm
26 juillet 22:58 16.4°C 87% 1.6 km/h E 1014.4 hPa 0 mm
26 juillet 22:57 16.4°C 87% 1.6 km/h ESE 1014.4 hPa 0 mm
26 juillet 22:56 16.4°C 87% 1.6 km/h SE 1014.4 hPa 0 mm
26 juillet 22:55 16.4°C 87% 1.6 km/h SE 1014.4 hPa 0 mm
26 juillet 22:54 16.4°C 87% 0.5 km/h SE 1014.3 hPa 0 mm
26 juillet 22:53 16.4°C 87% 1.1 km/h ESE 1014.3 hPa 0 mm
26 juillet 22:52 16.4°C 87% 1.6 km/h E 1014.3 hPa 0 mm
26 juillet 22:51 16.4°C 87% 1.6 km/h E 1014.3 hPa 0 mm
26 juillet 22:50 16.4°C 87% 2.6 km/h SSE 1014.3 hPa 0 mm
26 juillet 22:49 16.4°C 87% 2.6 km/h SSO 1014.3 hPa 0 mm
26 juillet 22:48 16.5°C 87% 1.6 km/h E 1014.3 hPa 0 mm
26 juillet 22:47 16.5°C 87% 1.1 km/h ESE 1014.3 hPa 0 mm
26 juillet 22:46 16.5°C 87% 0.0 km/h E 1014.2 hPa 0 mm
26 juillet 22:45 16.5°C 87% 0.0 km/h SE 1014.2 hPa 0 mm
26 juillet 22:44 16.6°C 87% 0.0 km/h SE 1014.2 hPa 0 mm
26 juillet 22:43 16.7°C 86% 1.1 km/h ESE 1014.3 hPa 0 mm
26 juillet 22:42 16.8°C 86% 2.1 km/h SE 1014.3 hPa 0 mm
26 juillet 22:41 16.9°C 86% 2.1 km/h SE 1014.3 hPa 0 mm
26 juillet 22:40 16.8°C 86% 1.6 km/h SE 1014.3 hPa 0 mm
26 juillet 22:39 16.8°C 86% 0.0 km/h ESE 1014.3 hPa 0 mm
26 juillet 22:38 16.8°C 86% 0.0 km/h ESE 1014.3 hPa 0 mm
26 juillet 22:37 16.8°C 86% 1.1 km/h E 1014.3 hPa 0 mm
26 juillet 22:36 16.9°C 86% 0.5 km/h NE 1014.3 hPa 0 mm
26 juillet 22:35 16.9°C 86% 0.5 km/h E 1014.3 hPa 0 mm
26 juillet 22:34 16.9°C 87% 1.1 km/h E 1014.3 hPa 0 mm
26 juillet 22:33 16.9°C 87% 0.5 km/h ESE 1014.3 hPa 0 mm
26 juillet 22:32 16.9°C 87% 0.0 km/h SE 1014.3 hPa 0 mm
26 juillet 22:31 16.9°C 87% 0.0 km/h E 1014.3 hPa 0 mm
26 juillet 22:30 17.0°C 86% 0.0 km/h ESE 1014.3 hPa 0 mm
26 juillet 22:29 16.9°C 86% 0.0 km/h SE 1014.3 hPa 0 mm
26 juillet 22:28 16.9°C 86% 0.0 km/h ESE 1014.3 hPa 0 mm
26 juillet 22:27 16.9°C 86% 0.0 km/h E 1014.2 hPa 0 mm
26 juillet 22:26 16.9°C 86% 0.0 km/h ESE 1014.2 hPa 0 mm
26 juillet 22:25 17.0°C 86% 0.0 km/h ESE 1014.2 hPa 0 mm
26 juillet 22:24 17.0°C 86% 0.0 km/h ENE 1014.2 hPa 0 mm
26 juillet 22:23 17.0°C 86% 0.0 km/h SSE 1014.2 hPa 0 mm
26 juillet 22:22 16.9°C 87% 0.0 km/h SSE 1014.3 hPa 0 mm
26 juillet 22:21 17.0°C 86% 0.5 km/h E 1014.2 hPa 0 mm
26 juillet 22:20 17.0°C 86% 0.5 km/h SE 1014.3 hPa 0 mm
26 juillet 22:19 17.0°C 86% 1.1 km/h SE 1014.2 hPa 0 mm
26 juillet 22:18 17.0°C 86% 1.1 km/h E 1014.2 hPa 0 mm
26 juillet 22:17 17.0°C 86% 1.1 km/h E 1014.2 hPa 0 mm
26 juillet 22:16 17.1°C 86% 1.1 km/h ESE 1014.2 hPa 0 mm
26 juillet 22:15 17.1°C 86% 2.1 km/h SE 1014.2 hPa 0 mm
26 juillet 22:14 17.1°C 85% 2.1 km/h SE 1014.2 hPa 0 mm
26 juillet 22:13 17.1°C 85% 2.1 km/h SE 1014.2 hPa 0 mm
26 juillet 22:12 17.1°C 85% 2.1 km/h SSO 1014.2 hPa 0 mm
26 juillet 22:11 17.1°C 85% 2.1 km/h SO 1014.2 hPa 0 mm
26 juillet 22:10 17.1°C 85% 1.6 km/h SO 1014.2 hPa 0 mm
26 juillet 22:09 17.1°C 85% 1.6 km/h S 1014.2 hPa 0 mm
26 juillet 22:08 17.1°C 85% 1.6 km/h SSO 1014.2 hPa 0 mm
26 juillet 22:07 17.1°C 85% 1.6 km/h S 1014.2 hPa 0 mm
26 juillet 22:06 17.1°C 84% 2.1 km/h SSO 1014.2 hPa 0 mm
26 juillet 22:05 17.2°C 84% 2.1 km/h S 1014.2 hPa 0 mm
26 juillet 22:04 17.2°C 84% 2.1 km/h S 1014.2 hPa 0 mm
26 juillet 22:03 17.2°C 84% 2.1 km/h S 1014.2 hPa 0 mm
26 juillet 22:02 17.2°C 84% 1.6 km/h SO 1014.2 hPa 0 mm
26 juillet 22:01 17.3°C 84% 2.1 km/h S 1014.2 hPa 0 mm
26 juillet 22:00 17.3°C 84% 2.6 km/h SSO 1014.2 hPa 0 mm
26 juillet 21:59 17.3°C 84% 3.2 km/h S 1014.2 hPa 0 mm
26 juillet 21:58 17.3°C 83% 2.6 km/h S 1014.2 hPa 0 mm
26 juillet 21:57 17.3°C 83% 2.6 km/h SSE 1014.3 hPa 0 mm
26 juillet 21:56 17.4°C 83% 2.6 km/h SE 1014.2 hPa 0 mm
26 juillet 21:55 17.4°C 83% 2.6 km/h SE 1014.2 hPa 0 mm
26 juillet 21:54 17.4°C 83% 2.6 km/h E 1014.2 hPa 0 mm
26 juillet 21:53 17.5°C 83% 2.1 km/h ESE 1014.2 hPa 0 mm
26 juillet 21:52 17.6°C 82% 1.6 km/h SE 1014.1 hPa 0 mm
26 juillet 21:51 17.6°C 82% 1.6 km/h SE 1014.1 hPa 0 mm
26 juillet 21:50 17.6°C 82% 0.0 km/h ESE 1014.1 hPa 0 mm
26 juillet 21:49 17.7°C 82% 0.5 km/h E 1014.1 hPa 0 mm
26 juillet 21:48 17.7°C 81% 1.1 km/h ESE 1014.1 hPa 0 mm
26 juillet 21:47 17.8°C 81% 1.6 km/h ESE 1014.1 hPa 0 mm
26 juillet 21:46 17.8°C 81% 1.6 km/h E 1014.1 hPa 0 mm
26 juillet 21:45 17.8°C 81% 1.1 km/h E 1014.1 hPa 0 mm
26 juillet 21:44 17.8°C 81% 1.1 km/h SSE 1014.1 hPa 0 mm
26 juillet 21:43 17.8°C 81% 1.1 km/h ESE 1014.1 hPa 0 mm
26 juillet 21:42 17.8°C 81% 2.1 km/h SE 1014.1 hPa 0 mm
26 juillet 21:41 17.8°C 81% 1.1 km/h SE 1014.1 hPa 0 mm
26 juillet 21:40 17.8°C 81% 1.1 km/h SSE 1014.0 hPa 0 mm
26 juillet 21:39 17.9°C 81% 0.5 km/h E 1014.0 hPa 0 mm
26 juillet 21:38 18.0°C 81% 1.1 km/h E 1014.0 hPa 0 mm
26 juillet 21:37 18.1°C 80% 1.1 km/h SE 1014.0 hPa 0 mm
26 juillet 21:36 18.1°C 80% 1.1 km/h SSE 1014.0 hPa 0 mm
26 juillet 21:35 18.1°C 80% 0.0 km/h SE 1014.0 hPa 0 mm
26 juillet 21:34 18.2°C 80% 0.5 km/h SE 1014.0 hPa 0 mm
26 juillet 21:33 18.3°C 79% 1.1 km/h SE 1014.0 hPa 0 mm
26 juillet 21:32 18.4°C 79% 1.1 km/h SE 1014.0 hPa 0 mm
26 juillet 21:31 18.4°C 79% 1.1 km/h SE 1014.0 hPa 0 mm
26 juillet 21:30 18.4°C 79% 1.6 km/h E 1014.0 hPa 0 mm
26 juillet 21:29 18.5°C 79% 0.0 km/h SE 1013.9 hPa 0 mm
26 juillet 21:28 18.5°C 79% 0.0 km/h SE 1013.9 hPa 0 mm
26 juillet 21:27 18.6°C 79% 0.0 km/h SE 1013.9 hPa 0 mm
26 juillet 21:26 18.6°C 79% 0.0 km/h SSE 1013.9 hPa 0 mm
26 juillet 21:25 18.7°C 78% 0.0 km/h ESE 1013.8 hPa 0 mm
26 juillet 21:24 18.8°C 78% 0.0 km/h ESE 1013.8 hPa 0 mm
26 juillet 21:23 18.9°C 78% 0.0 km/h SE 1013.8 hPa 0 mm
26 juillet 21:22 19.0°C 77% 0.0 km/h SE 1013.8 hPa 0 mm
26 juillet 21:21 19.1°C 77% 0.0 km/h SE 1013.8 hPa 0 mm
26 juillet 21:20 19.1°C 77% 0.0 km/h SE 1013.8 hPa 0 mm
26 juillet 21:19 19.3°C 76% 0.0 km/h SE 1013.8 hPa 0 mm
26 juillet 21:18 19.3°C 76% 0.0 km/h E 1013.8 hPa 0 mm
26 juillet 21:17 19.4°C 75% 0.5 km/h SE 1013.8 hPa 0 mm
26 juillet 21:16 19.7°C 75% 1.1 km/h SE 1013.8 hPa 0 mm
26 juillet 21:15 19.9°C 74% 1.6 km/h SSE 1013.8 hPa 0 mm
26 juillet 21:14 20.0°C 74% 1.6 km/h SE 1013.8 hPa 0 mm
26 juillet 21:13 20.2°C 73% 1.1 km/h E 1013.8 hPa 0 mm
26 juillet 21:12 20.2°C 73% 1.1 km/h SE 1013.7 hPa 0 mm
26 juillet 21:11 20.3°C 72% 1.6 km/h SE 1013.7 hPa 0 mm
26 juillet 21:10 20.4°C 72% 1.6 km/h SE 1013.7 hPa 0 mm
26 juillet 21:09 20.5°C 71% 2.6 km/h SE 1013.6 hPa 0 mm
26 juillet 21:08 20.6°C 71% 1.6 km/h SE 1013.6 hPa 0 mm
26 juillet 21:07 20.6°C 71% 1.6 km/h ESE 1013.6 hPa 0 mm
26 juillet 21:06 20.6°C 71% 1.6 km/h SE 1013.6 hPa 0 mm
26 juillet 21:05 20.6°C 71% 2.1 km/h SE 1013.5 hPa 0 mm
26 juillet 21:04 20.7°C 71% 1.6 km/h ESE 1013.5 hPa 0 mm
26 juillet 21:03 20.8°C 70% 2.1 km/h ESE 1013.5 hPa 0 mm
26 juillet 21:02 20.8°C 70% 2.6 km/h ESE 1013.5 hPa 0 mm
26 juillet 21:01 20.9°C 69% 2.6 km/h SE 1013.5 hPa 0 mm
26 juillet 21:00 21.0°C 69% 2.6 km/h ESE 1013.4 hPa 0 mm
26 juillet 20:59 20.9°C 69% 3.2 km/h ESE 1013.4 hPa 0 mm
26 juillet 20:58 20.9°C 69% 2.6 km/h ESE 1013.4 hPa 0 mm
26 juillet 20:57 21.0°C 68% 2.1 km/h E 1013.4 hPa 0 mm
26 juillet 20:56 21.1°C 68% 2.1 km/h E 1013.4 hPa 0 mm
26 juillet 20:55 21.1°C 68% 1.6 km/h E 1013.4 hPa 0 mm
26 juillet 20:54 21.2°C 67% 1.6 km/h E 1013.4 hPa 0 mm
26 juillet 20:53 21.2°C 66% 1.6 km/h E 1013.4 hPa 0 mm
26 juillet 20:52 21.2°C 66% 1.1 km/h E 1013.3 hPa 0 mm
26 juillet 20:51 21.3°C 66% 2.1 km/h E 1013.3 hPa 0 mm
26 juillet 20:50 21.3°C 67% 1.6 km/h E 1013.3 hPa 0 mm
26 juillet 20:49 21.4°C 67% 1.6 km/h E 1013.3 hPa 0 mm
26 juillet 20:48 21.4°C 66% 1.1 km/h E 1013.3 hPa 0 mm
26 juillet 20:47 21.5°C 65% 1.1 km/h ENE 1013.2 hPa 0 mm
26 juillet 20:46 21.5°C 65% 2.1 km/h NE 1013.2 hPa 0 mm
26 juillet 20:45 21.6°C 65% 1.6 km/h NE 1013.2 hPa 0 mm
26 juillet 20:44 21.6°C 64% 2.1 km/h NE 1013.2 hPa 0 mm
26 juillet 20:43 21.7°C 64% 2.1 km/h NE 1013.2 hPa 0 mm
26 juillet 20:42 21.7°C 65% 2.1 km/h NE 1013.2 hPa 0 mm
26 juillet 20:41 21.8°C 65% 2.1 km/h ENE 1013.2 hPa 0 mm
26 juillet 20:40 21.9°C 65% 1.1 km/h NE 1013.2 hPa 0 mm
26 juillet 20:39 22.0°C 64% 0.5 km/h NE 1013.1 hPa 0 mm
26 juillet 20:38 22.1°C 64% 1.6 km/h NE 1013.1 hPa 0 mm
26 juillet 20:37 22.1°C 64% 1.6 km/h ENE 1013.1 hPa 0 mm
26 juillet 20:36 22.1°C 63% 1.6 km/h ENE 1013.1 hPa 0 mm
26 juillet 20:35 22.2°C 62% 1.6 km/h ENE 1013.1 hPa 0 mm
26 juillet 20:34 22.3°C 61% 3.2 km/h NE 1013.1 hPa 0 mm
26 juillet 20:33 22.3°C 62% 2.6 km/h NE 1013.1 hPa 0 mm
26 juillet 20:32 22.4°C 62% 3.2 km/h NE 1013.1 hPa 0 mm
26 juillet 20:31 22.5°C 61% 3.2 km/h NE 1013.1 hPa 0 mm
26 juillet 20:30 22.5°C 61% 3.7 km/h NE 1013.0 hPa 0 mm
26 juillet 20:29 22.6°C 61% 3.7 km/h NE 1013.0 hPa 0 mm
26 juillet 20:28 22.6°C 61% 2.1 km/h ENE 1013.0 hPa 0 mm
26 juillet 20:27 22.6°C 61% 1.6 km/h NE 1013.0 hPa 0 mm
26 juillet 20:26 22.7°C 61% 2.1 km/h NE 1013.0 hPa 0 mm
26 juillet 20:25 22.8°C 60% 2.1 km/h ENE 1013.0 hPa 0 mm
26 juillet 20:24 22.9°C 60% 2.1 km/h NE 1013.0 hPa 0 mm
26 juillet 20:23 22.9°C 60% 2.1 km/h NE 1013.0 hPa 0 mm
26 juillet 20:22 22.9°C 60% 2.6 km/h NE 1013.0 hPa 0 mm
26 juillet 20:21 22.9°C 60% 1.6 km/h ENE 1012.9 hPa 0 mm
26 juillet 20:20 23.0°C 60% 2.6 km/h ENE 1012.9 hPa 0 mm
26 juillet 20:19 23.1°C 59% 2.1 km/h NE 1012.9 hPa 0 mm
26 juillet 20:18 23.1°C 59% 2.6 km/h NE 1012.9 hPa 0 mm
26 juillet 20:17 23.1°C 59% 2.1 km/h NE 1012.8 hPa 0 mm
26 juillet 20:16 23.1°C 59% 2.6 km/h NE 1012.8 hPa 0 mm
26 juillet 20:15 23.2°C 59% 3.2 km/h NE 1012.8 hPa 0 mm
26 juillet 20:14 23.2°C 59% 3.7 km/h NE 1012.8 hPa 0 mm
26 juillet 20:13 23.2°C 59% 3.7 km/h NE 1012.8 hPa 0 mm
26 juillet 20:12 23.2°C 59% 3.7 km/h NE 1012.8 hPa 0 mm
26 juillet 20:11 23.2°C 59% 6.3 km/h NNE 1012.8 hPa 0 mm
26 juillet 20:10 23.2°C 59% 5.3 km/h NE 1012.8 hPa 0 mm
26 juillet 20:09 23.3°C 59% 3.7 km/h NE 1012.7 hPa 0 mm
26 juillet 20:08 23.3°C 59% 4.8 km/h NE 1012.8 hPa 0 mm
26 juillet 20:07 23.3°C 59% 2.6 km/h NE 1012.8 hPa 0 mm
26 juillet 20:06 23.3°C 59% 3.7 km/h NE 1012.7 hPa 0 mm
26 juillet 20:05 23.4°C 59% 5.3 km/h NE 1012.7 hPa 0 mm
26 juillet 20:04 23.4°C 57% 5.3 km/h NNE 1012.7 hPa 0 mm
26 juillet 20:03 23.4°C 57% 5.3 km/h NNE 1012.8 hPa 0 mm
26 juillet 20:02 23.4°C 57% 4.8 km/h NE 1012.8 hPa 0 mm
26 juillet 20:01 23.4°C 57% 3.7 km/h NNE 1012.8 hPa 0 mm
26 juillet 20:00 23.4°C 57% 4.8 km/h NNE 1012.8 hPa 0 mm
26 juillet 19:59 23.4°C 57% 5.8 km/h NNE 1012.7 hPa 0 mm
26 juillet 19:58 23.4°C 57% 5.8 km/h NE 1012.7 hPa 0 mm
26 juillet 19:57 23.5°C 57% 5.3 km/h NNE 1012.7 hPa 0 mm
26 juillet 19:56 23.6°C 57% 6.3 km/h NE 1012.7 hPa 0 mm
26 juillet 19:55 23.6°C 57% 4.2 km/h NNE 1012.7 hPa 0 mm
26 juillet 19:54 23.6°C 57% 6.3 km/h NE 1012.8 hPa 0 mm
26 juillet 19:53 23.6°C 56% 4.8 km/h NE 1012.8 hPa 0 mm
26 juillet 19:52 23.6°C 56% 5.8 km/h NNE 1012.7 hPa 0 mm
26 juillet 19:51 23.6°C 57% 5.8 km/h N 1012.7 hPa 0 mm
26 juillet 19:50 23.7°C 56% 6.9 km/h N 1012.7 hPa 0 mm
26 juillet 19:49 23.7°C 56% 6.3 km/h N 1012.7 hPa 0 mm
26 juillet 19:48 23.7°C 56% 6.9 km/h NNE 1012.7 hPa 0 mm
26 juillet 19:47 23.8°C 56% 8.4 km/h NNE 1012.8 hPa 0 mm
26 juillet 19:46 23.8°C 56% 6.9 km/h NNE 1012.8 hPa 0 mm
26 juillet 19:45 23.9°C 56% 5.8 km/h NE 1012.8 hPa 0 mm
26 juillet 19:44 23.9°C 55% 5.8 km/h NNE 1012.7 hPa 0 mm
26 juillet 19:43 24.0°C 56% 5.8 km/h NNE 1012.7 hPa 0 mm
26 juillet 19:42 24.0°C 56% 7.4 km/h NNE 1012.8 hPa 0 mm
26 juillet 19:41 24.1°C 56% 7.4 km/h N 1012.7 hPa 0 mm
26 juillet 19:40 24.1°C 56% 7.4 km/h NNE 1012.7 hPa 0 mm
26 juillet 19:39 24.1°C 56% 7.4 km/h N 1012.8 hPa 0 mm
26 juillet 19:38 24.1°C 56% 6.9 km/h N 1012.7 hPa 0 mm
26 juillet 19:37 24.1°C 56% 8.4 km/h NNE 1012.7 hPa 0 mm
26 juillet 19:36 24.1°C 56% 5.8 km/h ENE 1012.7 hPa 0 mm
26 juillet 19:35 24.1°C 56% 5.8 km/h NNE 1012.7 hPa 0 mm
26 juillet 19:34 24.1°C 56% 7.4 km/h NE 1012.6 hPa 0 mm
26 juillet 19:33 24.1°C 56% 7.4 km/h NNE 1012.6 hPa 0 mm
26 juillet 19:32 24.2°C 56% 7.4 km/h NE 1012.6 hPa 0 mm
26 juillet 19:31 24.2°C 57% 4.8 km/h NE 1012.6 hPa 0 mm
26 juillet 19:30 24.2°C 56% 5.8 km/h NE 1012.6 hPa 0 mm
26 juillet 19:29 24.2°C 56% 6.3 km/h N 1012.6 hPa 0 mm
26 juillet 19:28 24.2°C 55% 5.8 km/h ENE 1012.6 hPa 0 mm
26 juillet 19:27 24.2°C 56% 8.4 km/h NNE 1012.6 hPa 0 mm
26 juillet 19:26 24.3°C 56% 9.5 km/h NNE 1012.6 hPa 0 mm
26 juillet 19:25 24.2°C 56% 6.9 km/h ENE 1012.5 hPa 0 mm
26 juillet 19:24 24.2°C 56% 6.3 km/h NNE 1012.5 hPa 0 mm
26 juillet 19:23 24.2°C 56% 6.9 km/h NNE 1012.5 hPa 0 mm
26 juillet 19:22 24.2°C 56% 6.3 km/h NNE 1012.5 hPa 0 mm
26 juillet 19:21 24.1°C 55% 6.9 km/h NNE 1012.5 hPa 0 mm
26 juillet 19:20 24.1°C 56% 5.8 km/h ENE 1012.5 hPa 0 mm
26 juillet 19:19 24.0°C 56% 6.9 km/h NNE 1012.5 hPa 0 mm
26 juillet 19:18 24.0°C 56% 4.8 km/h NNE 1012.5 hPa 0 mm
26 juillet 19:17 23.9°C 57% 4.8 km/h NE 1012.5 hPa 0 mm
26 juillet 19:16 23.8°C 57% 6.9 km/h NE 1012.5 hPa 0 mm
26 juillet 19:15 23.8°C 57% 3.2 km/h NE 1012.5 hPa 0 mm
26 juillet 19:14 23.8°C 56% 4.8 km/h NNE 1012.5 hPa 0 mm
26 juillet 19:13 23.9°C 57% 4.2 km/h NE 1012.5 hPa 0 mm
26 juillet 19:12 24.0°C 56% 5.3 km/h N 1012.5 hPa 0 mm
26 juillet 19:11 24.0°C 56% 4.2 km/h ENE 1012.5 hPa 0 mm
26 juillet 19:10 24.1°C 55% 5.8 km/h NNE 1012.5 hPa 0 mm
26 juillet 19:09 24.2°C 55% 5.8 km/h NNE 1012.5 hPa 0 mm
26 juillet 19:08 24.4°C 55% 7.4 km/h NNE 1012.5 hPa 0 mm
26 juillet 19:07 24.6°C 56% 6.9 km/h ENE 1012.4 hPa 0 mm
26 juillet 19:06 24.7°C 55% 3.7 km/h NE 1012.4 hPa 0 mm
26 juillet 19:05 24.7°C 55% 3.7 km/h E 1012.4 hPa 0 mm
26 juillet 19:04 24.7°C 55% 4.2 km/h NE 1012.4 hPa 0 mm
26 juillet 19:03 24.7°C 55% 4.2 km/h E 1012.4 hPa 0 mm
26 juillet 19:02 24.8°C 54% 5.3 km/h NNE 1012.4 hPa 0 mm
26 juillet 19:01 24.8°C 54% 6.3 km/h ESE 1012.4 hPa 0 mm
26 juillet 19:00 24.7°C 54% 5.8 km/h ESE 1012.4 hPa 0 mm
26 juillet 18:59 24.8°C 55% 4.8 km/h NNE 1012.4 hPa 0 mm
26 juillet 18:58 24.7°C 55% 6.9 km/h NNE 1012.4 hPa 0 mm
26 juillet 18:57 24.6°C 55% 7.4 km/h N 1012.4 hPa 0 mm
26 juillet 18:56 24.7°C 55% 9.0 km/h NNE 1012.4 hPa 0 mm
26 juillet 18:55 24.7°C 55% 9.0 km/h NNE 1012.4 hPa 0 mm
26 juillet 18:54 24.7°C 56% 8.4 km/h NE 1012.4 hPa 0 mm
26 juillet 18:53 24.7°C 56% 5.3 km/h ESE 1012.4 hPa 0 mm
26 juillet 18:52 24.6°C 55% 5.3 km/h NE 1012.4 hPa 0 mm
26 juillet 18:51 24.6°C 55% 5.8 km/h NNE 1012.4 hPa 0 mm
26 juillet 18:50 24.5°C 55% 6.3 km/h NE 1012.4 hPa 0 mm
26 juillet 18:49 24.4°C 55% 7.4 km/h NNE 1012.4 hPa 0 mm
26 juillet 18:48 24.3°C 55% 5.3 km/h NE 1012.4 hPa 0 mm
26 juillet 18:47 24.3°C 54% 7.9 km/h NNE 1012.4 hPa 0 mm
26 juillet 18:46 24.3°C 54% 7.9 km/h NE 1012.4 hPa 0 mm
26 juillet 18:45 24.4°C 54% 7.4 km/h NE 1012.4 hPa 0 mm
26 juillet 18:44 24.7°C 53% 8.4 km/h NE 1012.4 hPa 0 mm
26 juillet 18:43 24.9°C 53% 12.1 km/h NNE 1012.4 hPa 0 mm
26 juillet 18:42 25.1°C 53% 11.1 km/h NNE 1012.4 hPa 0 mm
26 juillet 18:41 25.1°C 52% 3.7 km/h ENE 1012.4 hPa 0 mm
26 juillet 18:40 25.1°C 52% 5.8 km/h NE 1012.3 hPa 0 mm
26 juillet 18:39 25.1°C 54% 9.0 km/h NNE 1012.4 hPa 0 mm
26 juillet 18:38 25.1°C 53% 5.8 km/h SE 1012.4 hPa 0 mm
26 juillet 18:37 25.1°C 54% 4.8 km/h SE 1012.4 hPa 0 mm
26 juillet 18:36 25.1°C 53% 7.4 km/h SSE 1012.4 hPa 0 mm
26 juillet 18:35 25.3°C 53% 7.9 km/h NNE 1012.4 hPa 0 mm
26 juillet 18:34 25.3°C 52% 6.9 km/h NNE 1012.4 hPa 0 mm
26 juillet 18:33 25.3°C 52% 5.3 km/h NE 1012.4 hPa 0 mm
26 juillet 18:32 25.4°C 53% 5.3 km/h NNE 1012.3 hPa 0 mm
26 juillet 18:31 25.4°C 53% 6.9 km/h NE 1012.3 hPa 0 mm
26 juillet 18:30 25.3°C 52% 6.9 km/h NE 1012.3 hPa 0 mm
26 juillet 18:29 25.3°C 52% 4.8 km/h NE 1012.3 hPa 0 mm
26 juillet 18:28 25.3°C 52% 4.8 km/h NNE 1012.3 hPa 0 mm
26 juillet 18:27 25.2°C 53% 4.8 km/h ENE 1012.4 hPa 0 mm
26 juillet 18:26 25.2°C 52% 5.3 km/h NE 1012.4 hPa 0 mm
26 juillet 18:25 25.3°C 53% 5.3 km/h SSE 1012.4 hPa 0 mm
26 juillet 18:24 25.3°C 53% 4.8 km/h ESE 1012.4 hPa 0 mm
26 juillet 18:23 25.3°C 52% 4.8 km/h NE 1012.4 hPa 0 mm
26 juillet 18:22 25.5°C 52% 5.3 km/h NNE 1012.3 hPa 0 mm
26 juillet 18:21 25.5°C 52% 6.3 km/h NE 1012.3 hPa 0 mm
26 juillet 18:20 25.5°C 53% 4.2 km/h NE 1012.3 hPa 0 mm
26 juillet 18:19 25.6°C 53% 7.4 km/h NNE 1012.3 hPa 0 mm
26 juillet 18:18 25.7°C 54% 5.3 km/h NNE 1012.3 hPa 0 mm
26 juillet 18:17 25.5°C 55% 6.3 km/h NNE 1012.4 hPa 0 mm
26 juillet 18:16 25.5°C 55% 6.3 km/h NE 1012.4 hPa 0 mm
26 juillet 18:15 25.4°C 55% 4.2 km/h ENE 1012.4 hPa 0 mm
26 juillet 18:14 25.2°C 55% 3.7 km/h ENE 1012.4 hPa 0 mm
26 juillet 18:13 24.9°C 55% 2.1 km/h ENE 1012.4 hPa 0 mm
26 juillet 18:12 24.8°C 55% 2.6 km/h ENE 1012.4 hPa 0 mm
26 juillet 18:11 24.7°C 54% 4.2 km/h NE 1012.4 hPa 0 mm
26 juillet 18:10 24.7°C 54% 4.2 km/h NE 1012.4 hPa 0 mm
26 juillet 18:09 24.8°C 55% 5.8 km/h NE 1012.4 hPa 0 mm
26 juillet 18:08 24.8°C 55% 3.2 km/h NE 1012.4 hPa 0 mm
26 juillet 18:07 24.7°C 55% 2.6 km/h ENE 1012.4 hPa 0 mm
26 juillet 18:06 24.8°C 55% 4.8 km/h NE 1012.5 hPa 0 mm
26 juillet 18:05 24.8°C 54% 4.8 km/h NE 1012.4 hPa 0 mm
26 juillet 18:04 24.9°C 54% 5.8 km/h ENE 1012.5 hPa 0 mm
26 juillet 18:03 25.0°C 54% 4.8 km/h ENE 1012.5 hPa 0 mm
26 juillet 18:02 25.1°C 54% 5.3 km/h NE 1012.4 hPa 0 mm
26 juillet 18:01 25.2°C 54% 4.8 km/h ENE 1012.4 hPa 0 mm
26 juillet 18:00 25.3°C 53% 5.8 km/h NE 1012.4 hPa 0 mm
26 juillet 17:59 25.3°C 53% 5.8 km/h NE 1012.4 hPa 0 mm
26 juillet 17:58 25.4°C 53% 6.9 km/h NE 1012.4 hPa 0 mm
26 juillet 17:57 25.5°C 52% 7.4 km/h NE 1012.4 hPa 0 mm
26 juillet 17:56 25.5°C 52% 7.9 km/h NE 1012.4 hPa 0 mm
26 juillet 17:55 25.6°C 52% 5.8 km/h NNE 1012.4 hPa 0 mm
26 juillet 17:54 25.6°C 52% 9.0 km/h NE 1012.4 hPa 0 mm
26 juillet 17:53 25.7°C 52% 8.4 km/h NE 1012.4 hPa 0 mm
26 juillet 17:52 25.9°C 52% 7.9 km/h NNE 1012.4 hPa 0 mm
26 juillet 17:51 26.0°C 52% 6.9 km/h NNE 1012.4 hPa 0 mm
26 juillet 17:50 26.0°C 52% 6.3 km/h NE 1012.4 hPa 0 mm
26 juillet 17:49 26.1°C 53% 6.9 km/h NE 1012.4 hPa 0 mm
26 juillet 17:48 25.9°C 52% 5.8 km/h ENE 1012.4 hPa 0 mm
26 juillet 17:47 25.9°C 52% 5.3 km/h NE 1012.4 hPa 0 mm
26 juillet 17:46 25.8°C 52% 5.8 km/h NNE 1012.4 hPa 0 mm
26 juillet 17:45 25.9°C 51% 6.9 km/h NNE 1012.4 hPa 0 mm
26 juillet 17:44 25.8°C 52% 6.9 km/h NNE 1012.5 hPa 0 mm
26 juillet 17:43 25.5°C 52% 6.3 km/h NE 1012.5 hPa 0 mm
26 juillet 17:42 25.5°C 52% 6.9 km/h NE 1012.5 hPa 0 mm
26 juillet 17:41 25.5°C 52% 9.0 km/h NE 1012.5 hPa 0 mm
26 juillet 17:40 25.6°C 51% 6.9 km/h NNE 1012.5 hPa 0 mm
26 juillet 17:39 25.7°C 52% 8.4 km/h NE 1012.5 hPa 0 mm
26 juillet 17:38 25.9°C 52% 8.4 km/h NE 1012.5 hPa 0 mm
26 juillet 17:37 25.9°C 51% 9.5 km/h NNE 1012.5 hPa 0 mm
26 juillet 17:36 26.1°C 52% 8.4 km/h NNE 1012.5 hPa 0 mm
26 juillet 17:35 26.3°C 51% 7.9 km/h NNE 1012.5 hPa 0 mm
26 juillet 17:34 26.4°C 53% 7.4 km/h NNE 1012.5 hPa 0 mm
26 juillet 17:33 26.4°C 53% 10.6 km/h NE 1012.5 hPa 0 mm
26 juillet 17:32 26.3°C 51% 6.9 km/h ENE 1012.5 hPa 0 mm
26 juillet 17:31 26.1°C 52% 6.3 km/h NE 1012.5 hPa 0 mm
26 juillet 17:30 25.9°C 52% 7.4 km/h NE 1012.5 hPa 0 mm
26 juillet 17:29 26.0°C 51% 9.5 km/h NE 1012.5 hPa 0 mm
26 juillet 17:28 26.1°C 52% 7.4 km/h NE 1012.5 hPa 0 mm
26 juillet 17:27 26.0°C 51% 6.3 km/h NE 1012.6 hPa 0 mm
26 juillet 17:26 26.1°C 52% 4.8 km/h NNE 1012.6 hPa 0 mm
26 juillet 17:25 26.1°C 52% 7.9 km/h NNE 1012.6 hPa 0 mm
26 juillet 17:24 26.1°C 53% 6.3 km/h NE 1012.6 hPa 0 mm
26 juillet 17:23 26.1°C 53% 7.4 km/h NNE 1012.6 hPa 0 mm
26 juillet 17:22 26.1°C 53% 6.3 km/h NE 1012.6 hPa 0 mm
26 juillet 17:21 26.3°C 52% 7.4 km/h NNE 1012.6 hPa 0 mm
26 juillet 17:20 26.3°C 52% 10.6 km/h NNE 1012.6 hPa 0 mm
26 juillet 17:19 26.3°C 53% 5.3 km/h NE 1012.6 hPa 0 mm
26 juillet 17:18 26.3°C 52% 6.3 km/h NE 1012.6 hPa 0 mm
26 juillet 17:17 26.4°C 53% 8.4 km/h NE 1012.6 hPa 0.27 mm
26 juillet 17:16 26.2°C 53% 9.0 km/h NE 1012.6 hPa 0 mm
26 juillet 17:15 26.2°C 52% 7.4 km/h ENE 1012.6 hPa 0 mm
26 juillet 17:14 26.3°C 55% 10.0 km/h NNE 1012.6 hPa 0 mm
26 juillet 17:13 26.3°C 55% 6.3 km/h NE 1012.6 hPa 0 mm
26 juillet 17:12 26.1°C 54% 5.3 km/h ESE 1012.6 hPa 0 mm
26 juillet 17:11 26.1°C 53% 7.4 km/h NNE 1012.6 hPa 0 mm
26 juillet 17:10 26.1°C 51% 6.9 km/h ENE 1012.6 hPa 0 mm
26 juillet 17:09 26.0°C 51% 9.0 km/h NE 1012.6 hPa 0 mm
26 juillet 17:08 26.1°C 53% 5.8 km/h ENE 1012.6 hPa 0 mm
26 juillet 17:07 25.9°C 53% 4.2 km/h ENE 1012.6 hPa 0 mm
26 juillet 17:06 25.9°C 53% 6.3 km/h ENE 1012.6 hPa 0 mm
26 juillet 17:05 25.8°C 54% 8.4 km/h NE 1012.6 hPa 0 mm
26 juillet 17:04 25.8°C 53% 9.0 km/h ENE 1012.6 hPa 0 mm
26 juillet 17:03 26.0°C 53% 9.0 km/h N 1012.6 hPa 0 mm
26 juillet 17:02 26.1°C 52% 7.9 km/h NE 1012.6 hPa 0 mm
26 juillet 17:01 26.2°C 53% 9.5 km/h E 1012.6 hPa 0 mm
26 juillet 17:00 26.3°C 54% 10.6 km/h NE 1012.6 hPa 0 mm
26 juillet 16:59 26.1°C 54% 7.9 km/h NE 1012.6 hPa 0 mm
26 juillet 16:58 26.1°C 54% 5.3 km/h NE 1012.6 hPa 0 mm
26 juillet 16:57 25.9°C 53% 5.3 km/h E 1012.6 hPa 0 mm
26 juillet 16:56 26.1°C 53% 7.4 km/h NNE 1012.6 hPa 0 mm
26 juillet 16:55 26.0°C 53% 8.4 km/h NE 1012.6 hPa 0 mm
26 juillet 16:54 25.9°C 54% 8.4 km/h NE 1012.6 hPa 0 mm
26 juillet 16:53 25.8°C 54% 5.3 km/h NE 1012.6 hPa 0 mm
26 juillet 16:52 25.6°C 54% 7.9 km/h NE 1012.6 hPa 0 mm
26 juillet 16:51 25.8°C 53% 9.5 km/h NNE 1012.6 hPa 0 mm
26 juillet 16:50 26.0°C 54% 9.5 km/h NNE 1012.6 hPa 0 mm
26 juillet 16:49 26.1°C 53% 10.6 km/h NE 1012.6 hPa 0 mm
26 juillet 16:48 26.1°C 53% 11.6 km/h NNE 1012.6 hPa 0 mm
26 juillet 16:47 26.3°C 54% 5.8 km/h NNE 1012.5 hPa 0 mm
26 juillet 16:46 26.5°C 54% 7.9 km/h NNE 1012.6 hPa 0 mm
26 juillet 16:45 26.6°C 54% 12.7 km/h NE 1012.5 hPa 0 mm
26 juillet 16:44 26.5°C 55% 6.3 km/h E 1012.5 hPa 0 mm
26 juillet 16:43 26.5°C 55% 6.9 km/h SE 1012.6 hPa 0 mm
26 juillet 16:42 26.3°C 57% 5.8 km/h SSO 1012.6 hPa 0 mm
26 juillet 16:41 26.3°C 57% 5.3 km/h E 1012.6 hPa 0 mm
26 juillet 16:40 26.0°C 53% 5.3 km/h SE 1012.6 hPa 0 mm
26 juillet 16:39 26.1°C 56% 6.3 km/h OSO 1012.6 hPa 0 mm
26 juillet 16:38 25.7°C 52% 10.0 km/h SO 1012.6 hPa 0 mm
26 juillet 16:37 25.7°C 52% 9.0 km/h SSE 1012.6 hPa 0 mm
26 juillet 16:36 25.8°C 53% 8.4 km/h ESE 1012.6 hPa 0 mm
26 juillet 16:35 25.9°C 55% 9.0 km/h NE 1012.6 hPa 0 mm
26 juillet 16:34 25.8°C 52% 10.6 km/h ENE 1012.6 hPa 0 mm
26 juillet 16:33 25.9°C 52% 7.4 km/h NE 1012.6 hPa 0 mm
26 juillet 16:32 25.9°C 52% 6.3 km/h NE 1012.6 hPa 0 mm
26 juillet 16:31 26.0°C 53% 9.5 km/h E 1012.6 hPa 0 mm
26 juillet 16:30 26.1°C 53% 10.0 km/h E 1012.6 hPa 0 mm
26 juillet 16:29 25.9°C 55% 8.4 km/h ENE 1012.6 hPa 0 mm
26 juillet 16:28 25.8°C 52% 9.5 km/h NE 1012.6 hPa 0 mm
26 juillet 16:27 25.7°C 56% 7.4 km/h NNE 1012.6 hPa 0 mm
26 juillet 16:26 25.6°C 54% 8.4 km/h NNE 1012.7 hPa 0 mm
26 juillet 16:25 25.4°C 55% 6.3 km/h NE 1012.7 hPa 0 mm
26 juillet 16:24 25.1°C 53% 6.9 km/h ENE 1012.6 hPa 0 mm
26 juillet 16:23 25.1°C 55% 5.8 km/h NNE 1012.6 hPa 0 mm
26 juillet 16:22 25.1°C 55% 5.3 km/h ESE 1012.6 hPa 0 mm
26 juillet 16:21 25.1°C 53% 8.4 km/h NNE 1012.6 hPa 0 mm
26 juillet 16:20 25.2°C 53% 16.4 km/h NNE 1012.7 hPa 0 mm
26 juillet 16:19 25.6°C 53% 15.8 km/h ESE 1012.6 hPa 0 mm
26 juillet 16:18 25.8°C 54% 10.0 km/h NE 1012.6 hPa 0 mm
26 juillet 16:17 26.0°C 53% 11.6 km/h NE 1012.7 hPa 0 mm
26 juillet 16:16 26.0°C 53% 11.6 km/h ENE 1012.7 hPa 0 mm
26 juillet 16:15 26.2°C 54% 11.6 km/h NE 1012.6 hPa 0 mm
26 juillet 16:14 26.1°C 52% 9.5 km/h ENE 1012.6 hPa 0 mm
26 juillet 16:13 26.2°C 53% 12.7 km/h ENE 1012.7 hPa 0 mm
26 juillet 16:12 26.0°C 54% 5.8 km/h ENE 1012.7 hPa 0 mm
26 juillet 16:11 26.0°C 54% 4.2 km/h ENE 1012.7 hPa 0 mm
26 juillet 16:10 25.9°C 53% 5.8 km/h ENE 1012.7 hPa 0 mm
26 juillet 16:09 25.9°C 54% 5.3 km/h ENE 1012.7 hPa 0 mm
26 juillet 16:08 25.7°C 54% 7.9 km/h ENE 1012.8 hPa 0 mm
26 juillet 16:07 25.5°C 55% 9.0 km/h NE 1012.7 hPa 0 mm
26 juillet 16:06 25.6°C 53% 7.4 km/h NE 1012.7 hPa 0 mm
26 juillet 16:05 26.0°C 53% 10.6 km/h NNE 1012.7 hPa 0 mm
26 juillet 16:04 26.1°C 55% 8.4 km/h NE 1012.7 hPa 0 mm
26 juillet 16:03 25.9°C 55% 11.1 km/h ENE 1012.7 hPa 0 mm
26 juillet 16:02 25.9°C 55% 5.3 km/h NNE 1012.7 hPa 0 mm
26 juillet 16:01 25.8°C 54% 6.9 km/h SE 1012.7 hPa 0 mm
26 juillet 16:00 26.1°C 54% 9.5 km/h ENE 1012.8 hPa 0 mm
26 juillet 15:59 26.3°C 55% 5.3 km/h NE 1012.8 hPa 0 mm
26 juillet 15:58 26.7°C 55% 6.3 km/h NNE 1012.8 hPa 0 mm
26 juillet 15:57 26.7°C 55% 10.0 km/h E 1012.8 hPa 0 mm
26 juillet 15:56 26.7°C 55% 7.9 km/h OSO 1012.8 hPa 0 mm
26 juillet 15:55 26.6°C 56% 8.4 km/h OSO 1012.8 hPa 0 mm
26 juillet 15:54 26.5°C 56% 4.2 km/h ENE 1012.8 hPa 0 mm
26 juillet 15:53 26.4°C 56% 7.9 km/h SO 1012.9 hPa 0 mm
26 juillet 15:52 26.3°C 58% 7.4 km/h NE 1012.8 hPa 0 mm
26 juillet 15:51 26.3°C 58% 7.4 km/h SSE 1012.8 hPa 0 mm
26 juillet 15:50 26.0°C 56% 3.7 km/h ENE 1012.9 hPa 0 mm
26 juillet 15:49 26.0°C 53% 4.2 km/h SSE 1012.9 hPa 0 mm
26 juillet 15:48 26.3°C 52% 6.3 km/h NE 1012.9 hPa 0 mm
26 juillet 15:47 26.7°C 55% 10.0 km/h S 1012.8 hPa 0 mm
26 juillet 15:46 26.4°C 55% 6.9 km/h SO 1012.8 hPa 0 mm
26 juillet 15:45 26.3°C 54% 6.9 km/h O 1012.8 hPa 0 mm
26 juillet 15:44 26.1°C 57% 5.3 km/h SO 1012.8 hPa 0 mm
26 juillet 15:43 26.1°C 57% 6.3 km/h SSO 1012.8 hPa 0 mm
26 juillet 15:42 25.9°C 54% 5.8 km/h E 1012.8 hPa 0 mm
26 juillet 15:41 26.0°C 54% 4.8 km/h E 1012.8 hPa 0 mm
26 juillet 15:40 25.9°C 52% 2.1 km/h ESE 1012.9 hPa 0 mm
26 juillet 15:39 25.6°C 53% 3.2 km/h ENE 1012.8 hPa 0 mm
26 juillet 15:38 25.4°C 53% 3.2 km/h NE 1012.9 hPa 0 mm
26 juillet 15:37 25.4°C 53% 2.6 km/h NE 1012.9 hPa 0 mm
26 juillet 15:36 25.5°C 56% 6.3 km/h N 1012.9 hPa 0 mm
26 juillet 15:35 25.6°C 54% 7.9 km/h NE 1012.8 hPa 0 mm
26 juillet 15:34 25.9°C 55% 4.8 km/h ENE 1012.9 hPa 0 mm
26 juillet 15:33 25.8°C 56% 5.3 km/h S 1012.9 hPa 0 mm
26 juillet 15:32 25.7°C 55% 5.3 km/h SE 1012.8 hPa 0 mm
26 juillet 15:31 25.7°C 57% 4.2 km/h SO 1012.8 hPa 0 mm
26 juillet 15:30 25.5°C 57% 2.6 km/h NE 1012.9 hPa 0 mm
26 juillet 15:29 25.5°C 57% 2.1 km/h E 1012.9 hPa 0 mm
26 juillet 15:28 25.3°C 58% 3.2 km/h E 1012.9 hPa 0 mm
26 juillet 15:27 25.0°C 56% 2.6 km/h ENE 1012.9 hPa 0 mm
26 juillet 15:26 25.1°C 56% 4.2 km/h NE 1012.9 hPa 0 mm
26 juillet 15:25 25.2°C 56% 12.7 km/h NE 1013.0 hPa 0 mm
26 juillet 15:24 25.5°C 58% 4.8 km/h E 1012.9 hPa 0 mm
26 juillet 15:23 25.5°C 58% 6.3 km/h NE 1012.9 hPa 0 mm
26 juillet 15:22 25.4°C 57% 3.7 km/h ESE 1012.9 hPa 0 mm
26 juillet 15:21 25.7°C 56% 3.7 km/h ESE 1012.9 hPa 0 mm
26 juillet 15:20 25.7°C 59% 4.2 km/h NE 1012.9 hPa 0 mm
26 juillet 15:19 25.7°C 57% 2.6 km/h E 1012.9 hPa 0 mm
26 juillet 15:18 25.8°C 58% 4.8 km/h E 1012.9 hPa 0 mm
26 juillet 15:17 25.5°C 61% 3.7 km/h E 1012.9 hPa 0 mm
26 juillet 15:16 25.5°C 61% 4.2 km/h ENE 1012.9 hPa 0 mm
26 juillet 15:15 25.2°C 63% 4.8 km/h ENE 1012.9 hPa 0 mm
26 juillet 15:14 24.8°C 61% 3.7 km/h N 1012.9 hPa 0 mm
26 juillet 15:13 24.5°C 60% 4.2 km/h ESE 1013.0 hPa 0 mm
26 juillet 15:12 24.4°C 60% 4.8 km/h E 1013.0 hPa 0 mm
26 juillet 15:11 24.6°C 58% 6.3 km/h NNE 1013.0 hPa 0 mm
26 juillet 15:10 24.9°C 59% 11.1 km/h ESE 1013.0 hPa 0 mm
26 juillet 15:09 25.2°C 57% 9.0 km/h SE 1012.9 hPa 0 mm
26 juillet 15:08 25.6°C 57% 16.4 km/h SSE 1012.9 hPa 0 mm
26 juillet 15:07 25.5°C 57% 8.4 km/h SSE 1013.0 hPa 0 mm
26 juillet 15:06 25.5°C 56% 4.2 km/h SE 1013.0 hPa 0 mm
26 juillet 15:05 25.6°C 56% 4.2 km/h NE 1013.0 hPa 0 mm
26 juillet 15:04 25.7°C 55% 5.8 km/h SE 1013.0 hPa 0 mm
26 juillet 15:03 25.7°C 55% 4.8 km/h SO 1013.0 hPa 0 mm
26 juillet 15:02 25.7°C 58% 3.2 km/h SSO 1013.0 hPa 0 mm
26 juillet 15:01 25.5°C 58% 3.7 km/h SO 1013.1 hPa 0 mm
26 juillet 15:00 25.4°C 61% 6.3 km/h OSO 1013.0 hPa 0 mm
26 juillet 14:59 25.3°C 59% 5.8 km/h OSO 1013.1 hPa 0 mm
26 juillet 14:58 25.2°C 57% 9.0 km/h SO 1013.0 hPa 0 mm
26 juillet 14:57 25.2°C 56% 4.8 km/h SE 1013.0 hPa 0 mm
26 juillet 14:56 25.2°C 56% 5.3 km/h SO 1013.0 hPa 0 mm
26 juillet 14:55 25.5°C 57% 6.3 km/h SO 1013.0 hPa 0 mm
26 juillet 14:54 25.4°C 57% 6.3 km/h OSO 1013.0 hPa 0 mm
26 juillet 14:53 25.3°C 59% 7.4 km/h SO 1013.0 hPa 0 mm
26 juillet 14:52 25.4°C 58% 7.4 km/h O 1013.0 hPa 0 mm
26 juillet 14:51 25.2°C 55% 7.9 km/h O 1013.0 hPa 0 mm
26 juillet 14:50 25.4°C 55% 3.7 km/h SE 1013.0 hPa 0 mm
26 juillet 14:49 25.5°C 59% 7.4 km/h NNE 1013.0 hPa 0 mm
26 juillet 14:48 25.2°C 58% 4.8 km/h SSE 1013.0 hPa 0 mm
26 juillet 14:47 25.0°C 57% 4.8 km/h OSO 1013.0 hPa 0 mm
26 juillet 14:46 25.0°C 57% 4.8 km/h E 1013.0 hPa 0 mm
26 juillet 14:45 24.8°C 58% 4.8 km/h SSE 1013.0 hPa 0 mm
26 juillet 14:44 24.6°C 60% 6.3 km/h SO 1013.0 hPa 0 mm
26 juillet 14:43 24.5°C 58% 7.4 km/h E 1013.0 hPa 0 mm
26 juillet 14:42 24.6°C 61% 6.9 km/h NE 1013.0 hPa 0 mm
26 juillet 14:41 24.6°C 58% 8.4 km/h ESE 1013.0 hPa 0 mm
26 juillet 14:40 24.6°C 58% 9.5 km/h NNE 1013.0 hPa 0 mm
26 juillet 14:39 24.7°C 58% 6.9 km/h NNE 1013.0 hPa 0 mm
26 juillet 14:38 24.8°C 59% 5.8 km/h NE 1013.0 hPa 0 mm
26 juillet 14:37 24.6°C 59% 5.3 km/h ENE 1013.0 hPa 0 mm
26 juillet 14:36 24.4°C 59% 4.8 km/h NE 1013.1 hPa 0 mm
26 juillet 14:35 24.5°C 60% 7.4 km/h NE 1013.1 hPa 0 mm
26 juillet 14:34 24.5°C 60% 6.9 km/h NNE 1013.1 hPa 0 mm
26 juillet 14:33 24.6°C 60% 6.3 km/h NE 1013.1 hPa 0 mm
26 juillet 14:32 24.4°C 61% 6.3 km/h NE 1013.1 hPa 0 mm
26 juillet 14:31 24.3°C 60% 4.8 km/h NE 1013.1 hPa 0 mm
26 juillet 14:30 24.3°C 59% 5.8 km/h ENE 1013.1 hPa 0 mm
26 juillet 14:29 24.3°C 59% 5.3 km/h NE 1013.1 hPa 0 mm
26 juillet 14:28 24.6°C 62% 7.4 km/h NE 1013.1 hPa 0 mm
26 juillet 14:27 24.4°C 60% 6.3 km/h NE 1013.1 hPa 0 mm
26 juillet 14:26 24.5°C 63% 10.0 km/h NE 1013.1 hPa 0 mm
26 juillet 14:25 24.3°C 61% 5.8 km/h NE 1013.1 hPa 0 mm
26 juillet 14:24 24.0°C 61% 4.2 km/h ENE 1013.2 hPa 0 mm
26 juillet 14:23 24.0°C 61% 6.9 km/h NE 1013.2 hPa 0 mm
26 juillet 14:22 23.9°C 60% 3.7 km/h NE 1013.1 hPa 0 mm
26 juillet 14:21 23.6°C 62% 2.1 km/h E 1013.2 hPa 0 mm
26 juillet 14:20 23.5°C 60% 4.2 km/h ENE 1013.2 hPa 0 mm
26 juillet 14:19 23.5°C 62% 6.3 km/h NE 1013.2 hPa 0 mm
26 juillet 14:18 23.5°C 62% 3.7 km/h ENE 1013.2 hPa 0 mm
26 juillet 14:17 23.5°C 61% 4.2 km/h NE 1013.2 hPa 0 mm
26 juillet 14:16 23.6°C 62% 5.8 km/h E 1013.1 hPa 0 mm
26 juillet 14:15 23.7°C 59% 4.8 km/h NE 1013.2 hPa 0 mm
26 juillet 14:14 24.1°C 60% 7.9 km/h NE 1013.2 hPa 0 mm
26 juillet 14:13 24.4°C 60% 10.6 km/h NNE 1013.2 hPa 0 mm
26 juillet 14:12 24.8°C 60% 9.0 km/h ENE 1013.2 hPa 0 mm
26 juillet 14:11 24.8°C 60% 6.9 km/h NE 1013.2 hPa 0 mm
26 juillet 14:10 24.9°C 59% 4.8 km/h ESE 1013.1 hPa 0 mm
26 juillet 14:09 25.1°C 60% 5.8 km/h NNE 1013.1 hPa 0 mm
26 juillet 14:08 25.2°C 60% 2.6 km/h NNE 1013.1 hPa 0 mm
26 juillet 14:07 25.1°C 61% 3.7 km/h ESE 1013.1 hPa 0 mm
26 juillet 14:06 24.7°C 66% 3.7 km/h OSO 1013.1 hPa 0 mm
26 juillet 14:05 24.1°C 65% 3.2 km/h S 1013.1 hPa 0 mm
26 juillet 14:04 24.1°C 65% 3.7 km/h ESE 1013.1 hPa 0 mm
26 juillet 14:03 23.7°C 62% 1.6 km/h SE 1013.2 hPa 0 mm
26 juillet 14:02 23.2°C 64% 3.7 km/h O 1013.1 hPa 0 mm
26 juillet 14:01 22.9°C 62% 5.3 km/h ONO 1013.2 hPa 0 mm
26 juillet 14:00 22.8°C 64% 5.8 km/h SSO 1013.2 hPa 0 mm
26 juillet 13:59 22.8°C 64% 7.4 km/h S 1013.1 hPa 0 mm
26 juillet 13:58 22.7°C 64% 7.4 km/h NE 1013.2 hPa 0 mm
26 juillet 13:57 22.6°C 63% 4.2 km/h NE 1013.1 hPa 0 mm
26 juillet 13:56 22.5°C 63% 8.4 km/h E 1013.2 hPa 0 mm
26 juillet 13:56 22.6°C 63% 3.2 km/h ENE 1013.2 hPa 0 mm
26 juillet 13:55 22.4°C 64% 5.8 km/h SSE 1013.2 hPa 0 mm
26 juillet 13:54 22.4°C 64% 5.3 km/h E 1013.2 hPa 0 mm
26 juillet 13:53 22.5°C 64% 3.7 km/h S 1013.2 hPa 0 mm
26 juillet 13:52 22.5°C 65% 5.3 km/h SE 1013.2 hPa 0 mm
26 juillet 13:51 22.6°C 64% 7.4 km/h ESE 1013.2 hPa 0 mm
26 juillet 13:50 22.6°C 64% 6.3 km/h ESE 1013.2 hPa 0 mm
26 juillet 13:49 22.8°C 64% 7.9 km/h SSE 1013.2 hPa 0 mm
26 juillet 13:48 22.9°C 64% 6.9 km/h SO 1013.2 hPa 0 mm
26 juillet 13:47 23.0°C 65% 6.9 km/h SE 1013.2 hPa 0 mm
26 juillet 13:46 23.2°C 64% 6.9 km/h SSE 1013.2 hPa 0 mm
26 juillet 13:45 23.2°C 64% 6.3 km/h SE 1013.2 hPa 0 mm
26 juillet 13:44 23.5°C 63% 6.3 km/h ESE 1013.2 hPa 0 mm
26 juillet 13:43 23.8°C 62% 8.4 km/h E 1013.2 hPa 0 mm
26 juillet 13:42 24.3°C 62% 7.9 km/h NNE 1013.2 hPa 0 mm
26 juillet 13:41 24.5°C 64% 7.4 km/h NE 1013.2 hPa 0 mm
26 juillet 13:40 24.3°C 63% 5.3 km/h NE 1013.2 hPa 0 mm
26 juillet 13:39 24.2°C 61% 7.9 km/h NNE 1013.2 hPa 0 mm
26 juillet 13:38 24.4°C 62% 6.3 km/h NE 1013.2 hPa 0 mm
26 juillet 13:37 24.4°C 62% 9.0 km/h NE 1013.2 hPa 0 mm
26 juillet 13:36 24.3°C 61% 7.4 km/h NNE 1013.2 hPa 0 mm
26 juillet 13:35 24.3°C 61% 5.3 km/h ENE 1013.2 hPa 0 mm
26 juillet 13:34 24.3°C 61% 4.8 km/h ENE 1013.2 hPa 0 mm
26 juillet 13:33 24.0°C 61% 5.3 km/h ENE 1013.2 hPa 0 mm
26 juillet 13:32 23.8°C 60% 4.8 km/h ENE 1013.2 hPa 0 mm
26 juillet 13:31 23.9°C 60% 3.2 km/h O 1013.2 hPa 0 mm
26 juillet 13:30 24.1°C 63% 3.7 km/h ENE 1013.2 hPa 0 mm
26 juillet 13:29 24.1°C 63% 4.8 km/h NE 1013.2 hPa 0 mm
26 juillet 13:28 24.0°C 62% 4.8 km/h ENE 1013.2 hPa 0 mm
26 juillet 13:27 24.0°C 63% 5.3 km/h NNE 1013.2 hPa 0 mm
26 juillet 13:26 24.1°C 61% 9.0 km/h NNE 1013.2 hPa 0 mm
26 juillet 13:25 24.2°C 65% 9.0 km/h ENE 1013.2 hPa 0 mm
26 juillet 13:24 23.9°C 62% 5.3 km/h E 1013.3 hPa 0 mm
26 juillet 13:23 24.1°C 65% 7.9 km/h NNE 1013.3 hPa 0 mm
26 juillet 13:22 23.9°C 66% 7.9 km/h SSE 1013.3 hPa 0 mm
26 juillet 13:21 23.9°C 66% 5.3 km/h NE 1013.3 hPa 0 mm
26 juillet 13:20 23.5°C 64% 4.8 km/h NE 1013.4 hPa 0 mm
26 juillet 13:19 23.3°C 64% 4.2 km/h NNE 1013.4 hPa 0 mm
26 juillet 13:18 23.1°C 66% 6.3 km/h NNE 1013.4 hPa 0 mm
26 juillet 13:17 22.9°C 64% 4.8 km/h SE 1013.4 hPa 0 mm
26 juillet 13:16 23.2°C 64% 7.9 km/h N 1013.4 hPa 0 mm
26 juillet 13:15 23.3°C 64% 3.7 km/h NNE 1013.4 hPa 0 mm
26 juillet 13:14 23.6°C 63% 5.8 km/h NNE 1013.5 hPa 0 mm
26 juillet 13:13 23.9°C 64% 8.4 km/h NE 1013.5 hPa 0 mm
26 juillet 13:12 24.2°C 65% 10.0 km/h NE 1013.5 hPa 0 mm
26 juillet 13:11 24.3°C 64% 9.5 km/h SSE 1013.4 hPa 0 mm
26 juillet 13:10 24.3°C 63% 12.7 km/h ENE 1013.5 hPa 0 mm
26 juillet 13:09 24.2°C 66% 10.0 km/h NE 1013.4 hPa 0 mm
26 juillet 13:08 23.8°C 63% 6.3 km/h SSO 1013.4 hPa 0 mm
26 juillet 13:07 23.6°C 62% 4.2 km/h ENE 1013.5 hPa 0 mm
26 juillet 13:06 23.6°C 62% 3.7 km/h NE 1013.5 hPa 0 mm
26 juillet 13:05 23.6°C 62% 4.2 km/h ENE 1013.5 hPa 0 mm
26 juillet 13:04 23.3°C 62% 4.2 km/h E 1013.5 hPa 0 mm
26 juillet 13:03 23.3°C 62% 3.7 km/h NE 1013.5 hPa 0 mm
26 juillet 13:02 23.2°C 62% 2.6 km/h NE 1013.5 hPa 0 mm
26 juillet 13:01 23.6°C 64% 6.3 km/h NE 1013.5 hPa 0 mm
26 juillet 13:00 23.9°C 64% 7.4 km/h N 1013.5 hPa 0 mm
26 juillet 12:59 23.8°C 66% 7.9 km/h NNE 1013.5 hPa 0 mm
26 juillet 12:58 23.8°C 64% 5.8 km/h NE 1013.5 hPa 0 mm
26 juillet 12:57 23.8°C 64% 4.2 km/h E 1013.5 hPa 0 mm
26 juillet 12:56 23.8°C 66% 7.4 km/h ENE 1013.5 hPa 0 mm
26 juillet 12:55 23.7°C 63% 6.9 km/h NNE 1013.5 hPa 0 mm
26 juillet 12:54 23.6°C 63% 4.8 km/h ENE 1013.5 hPa 0 mm
26 juillet 12:53 23.9°C 63% 3.7 km/h ESE 1013.5 hPa 0 mm
26 juillet 12:52 23.8°C 65% 7.4 km/h ENE 1013.5 hPa 0 mm
26 juillet 12:51 23.6°C 69% 5.8 km/h NE 1013.5 hPa 0 mm
26 juillet 12:50 23.1°C 67% 3.7 km/h NE 1013.5 hPa 0 mm
26 juillet 12:49 22.7°C 66% 3.7 km/h ENE 1013.5 hPa 0 mm
26 juillet 12:48 22.5°C 66% 4.8 km/h NE 1013.5 hPa 0 mm
26 juillet 12:47 22.5°C 66% 6.3 km/h NNE 1013.5 hPa 0 mm
26 juillet 12:46 22.5°C 66% 6.3 km/h NE 1013.5 hPa 0 mm
26 juillet 12:45 22.5°C 67% 7.4 km/h NNE 1013.6 hPa 0 mm
26 juillet 12:44 22.3°C 66% 6.9 km/h NE 1013.6 hPa 0 mm
26 juillet 12:43 22.4°C 67% 7.4 km/h ENE 1013.6 hPa 0 mm
26 juillet 12:42 22.4°C 67% 4.8 km/h NNE 1013.6 hPa 0 mm
26 juillet 12:41 22.5°C 66% 4.8 km/h E 1013.6 hPa 0 mm
26 juillet 12:40 22.6°C 64% 5.8 km/h NNE 1013.5 hPa 0 mm
26 juillet 12:39 22.6°C 64% 5.8 km/h NNE 1013.5 hPa 0 mm
26 juillet 12:38 22.7°C 64% 3.7 km/h ENE 1013.5 hPa 0 mm
26 juillet 12:37 22.7°C 66% 6.3 km/h ENE 1013.5 hPa 0 mm
26 juillet 12:36 22.7°C 65% 7.9 km/h NNE 1013.5 hPa 0 mm
26 juillet 12:35 22.7°C 67% 7.4 km/h ENE 1013.5 hPa 0 mm
26 juillet 12:34 22.5°C 66% 4.8 km/h NE 1013.5 hPa 0 mm
26 juillet 12:33 22.7°C 67% 5.8 km/h NNE 1013.5 hPa 0 mm
26 juillet 12:32 22.7°C 68% 6.9 km/h NE 1013.5 hPa 0 mm
26 juillet 12:31 22.9°C 67% 7.4 km/h NE 1013.5 hPa 0 mm
26 juillet 12:30 22.9°C 67% 3.7 km/h E 1013.5 hPa 0 mm
26 juillet 12:29 22.9°C 69% 4.2 km/h E 1013.5 hPa 0 mm
26 juillet 12:28 23.0°C 67% 4.2 km/h SSE 1013.5 hPa 0 mm
26 juillet 12:27 23.1°C 68% 6.3 km/h NE 1013.5 hPa 0 mm
26 juillet 12:26 23.0°C 69% 7.9 km/h NNE 1013.5 hPa 0 mm
26 juillet 12:25 23.0°C 69% 9.5 km/h N 1013.6 hPa 0 mm
26 juillet 12:24 23.0°C 72% 5.8 km/h E 1013.6 hPa 0 mm
26 juillet 12:23 22.4°C 69% 5.3 km/h NE 1013.6 hPa 0 mm
26 juillet 12:22 22.2°C 68% 4.8 km/h NNE 1013.5 hPa 0 mm
26 juillet 12:21 22.1°C 67% 3.2 km/h ESE 1013.5 hPa 0 mm
26 juillet 12:20 22.2°C 67% 4.8 km/h ENE 1013.5 hPa 0 mm
26 juillet 12:19 22.5°C 68% 6.9 km/h ENE 1013.5 hPa 0 mm
26 juillet 12:18 22.7°C 68% 5.3 km/h ENE 1013.5 hPa 0 mm
26 juillet 12:17 22.9°C 66% 7.4 km/h ENE 1013.5 hPa 0 mm
26 juillet 12:16 23.2°C 67% 6.3 km/h E 1013.4 hPa 0 mm
26 juillet 12:15 23.1°C 67% 7.9 km/h ENE 1013.4 hPa 0 mm
26 juillet 12:14 23.0°C 68% 4.2 km/h ESE 1013.4 hPa 0 mm
26 juillet 12:13 23.0°C 68% 8.4 km/h NNE 1013.4 hPa 0 mm
26 juillet 12:12 23.2°C 67% 4.2 km/h SE 1013.5 hPa 0 mm
26 juillet 12:11 22.8°C 68% 2.6 km/h ESE 1013.5 hPa 0 mm
26 juillet 12:10 22.5°C 68% 3.7 km/h E 1013.5 hPa 0 mm
26 juillet 12:09 22.2°C 68% 3.7 km/h NE 1013.5 hPa 0 mm
26 juillet 12:08 22.2°C 67% 4.2 km/h NE 1013.5 hPa 0 mm
26 juillet 12:07 21.8°C 68% 3.2 km/h NE 1013.5 hPa 0 mm
26 juillet 12:06 21.6°C 69% 5.3 km/h NE 1013.5 hPa 0 mm
26 juillet 12:05 21.4°C 70% 7.9 km/h NE 1013.5 hPa 0 mm
26 juillet 12:04 21.4°C 69% 8.4 km/h NNE 1013.5 hPa 0 mm
26 juillet 12:03 21.7°C 69% 7.9 km/h ENE 1013.5 hPa 0 mm
26 juillet 12:02 21.7°C 69% 7.9 km/h NE 1013.5 hPa 0 mm
26 juillet 12:01 21.9°C 69% 5.3 km/h NE